Wetterdaten: Samstag, 12.01.2019
Datum Zeit Temp. Aussen Temp. o. S. +5cm Feuchte Auss Luftdruck Regen Sonnenschein Regendauer Solar Windben Empfang
12.01.2019 00:00 5,9 C 5,0 C 4,4 C 99 % 1021,9 hPa 0,0 l/m 0 min 0 min 0 W/m 12,9 km/h (3 Bft) 100,00 %
12.01.2019 00:02 5,9 C 5,0 C 4,4 C 99 % 1021,8 hPa 0,0 l/m 0 min 0 min 0 W/m 6,4 km/h (2 Bft) 97,50 %
12.01.2019 00:04 5,9 C 5,0 C 4,4 C 99 % 1021,8 hPa 0,0 l/m 0 min 0 min 0 W/m 9,7 km/h (2 Bft) 97,87 %
12.01.2019 00:07 5,9 C 5,0 C 5,0 C 99 % 1021,9 hPa 0,0 l/m 0 min 0 min 0 W/m 9,7 km/h (2 Bft) 98,57 %
12.01.2019 00:08 5,9 C 5,0 C 4,4 C 99 % 1021,9 hPa 0,0 l/m 0 min 0 min 0 W/m 6,4 km/h (2 Bft) 100,00 %
12.01.2019 00:10 5,9 C 5,0 C 4,4 C 99 % 1021,9 hPa 0,0 l/m 0 min 0 min 0 W/m 6,4 km/h (2 Bft) 100,00 %
12.01.2019 00:12 5,9 C 5,0 C 4,4 C 99 % 1021,8 hPa 0,0 l/m 0 min 0 min 0 W/m 9,7 km/h (2 Bft) 98,00 %
12.01.2019 00:14 5,9 C 5,0 C 4,4 C 99 % 1021,8 hPa 0,0 l/m 0 min 0 min 0 W/m 9,7 km/h (2 Bft) 97,96 %
12.01.2019 00:16 5,9 C 5,0 C 4,4 C 99 % 1021,8 hPa 0,0 l/m 0 min 0 min 0 W/m 12,9 km/h (3 Bft) 97,87 %
12.01.2019 00:18 5,9 C 5,0 C 4,4 C 99 % 1021,8 hPa 0,0 l/m 0 min 0 min 0 W/m 9,7 km/h (2 Bft) 100,00 %
12.01.2019 00:20 5,9 C 5,0 C 4,4 C 99 % 1021,8 hPa 0,0 l/m 0 min 0 min 0 W/m 9,7 km/h (2 Bft) 95,74 %
12.01.2019 00:22 5,9 C 5,0 C 4,4 C 99 % 1021,9 hPa 0,0 l/m 0 min 0 min 0 W/m 9,7 km/h (2 Bft) 97,87 %
12.01.2019 00:24 5,9 C 5,0 C 4,4 C 99 % 1021,9 hPa 0,0 l/m 0 min 0 min 0 W/m 9,7 km/h (2 Bft) 95,24 %
12.01.2019 00:26 5,9 C 5,0 C 4,4 C 99 % 1022,0 hPa 0,0 l/m 0 min 0 min 0 W/m 9,7 km/h (2 Bft) 97,96 %
12.01.2019 00:28 5,9 C 5,0 C 4,4 C 99 % 1022,0 hPa 0,0 l/m 0 min 0 min 0 W/m 6,4 km/h (2 Bft) 95,92 %
12.01.2019 00:30 5,9 C 5,0 C 4,4 C 99 % 1022,0 hPa 0,0 l/m 0 min 0 min 0 W/m 16,1 km/h (3 Bft) 97,87 %
12.01.2019 00:32 5,9 C 5,0 C 4,4 C 99 % 1022,0 hPa 0,0 l/m 0 min 0 min 0 W/m 9,7 km/h (2 Bft) 97,87 %
12.01.2019 00:34 5,9 C 5,0 C 4,4 C 99 % 1021,9 hPa 0,0 l/m 0 min 0 min 0 W/m 6,4 km/h (2 Bft) 97,56 %
12.01.2019 00:36 5,8 C 5,0 C 4,4 C 99 % 1022,0 hPa 0,0 l/m 0 min 0 min 0 W/m 9,7 km/h (2 Bft) 97,96 %
12.01.2019 00:38 5,8 C 5,0 C 4,4 C 99 % 1022,0 hPa 0,0 l/m 0 min 0 min 0 W/m 9,7 km/h (2 Bft) 95,74 %
12.01.2019 00:40 5,8 C 5,0 C 4,4 C 99 % 1022,0 hPa 0,0 l/m 0 min 0 min 0 W/m 12,9 km/h (3 Bft) 97,96 %
12.01.2019 00:42 5,8 C 5,0 C 4,4 C 99 % 1022,0 hPa 0,0 l/m 0 min 0 min 0 W/m 6,4 km/h (2 Bft) 95,92 %
12.01.2019 00:44 5,8 C 5,0 C 4,4 C 99 % 1022,1 hPa 0,0 l/m 0 min 0 min 0 W/m 6,4 km/h (2 Bft) 95,74 %
12.01.2019 00:46 5,8 C 5,0 C 4,4 C 99 % 1022,0 hPa 0,0 l/m 0 min 0 min 0 W/m 6,4 km/h (2 Bft) 93,62 %
12.01.2019 00:48 5,8 C 5,0 C 4,4 C 99 % 1022,0 hPa 0,0 l/m 0 min 0 min 0 W/m 6,4 km/h (2 Bft) 91,30 %
12.01.2019 00:50 5,8 C 5,0 C 4,4 C 99 % 1022,0 hPa 0,0 l/m 0 min 0 min 0 W/m 3,2 km/h (1 Bft) 95,24 %
12.01.2019 00:52 5,8 C 5,0 C 4,4 C 99 % 1022,0 hPa 0,0 l/m 0 min 0 min 0 W/m 6,4 km/h (2 Bft) 91,84 %
12.01.2019 00:54 5,8 C 5,0 C 4,4 C 99 % 1022,0 hPa 0,0 l/m 0 min 0 min 0 W/m 16,1 km/h (3 Bft) 93,75 %
12.01.2019 00:56 5,8 C 5,0 C 4,4 C 99 % 1022,0 hPa 0,0 l/m 0 min 0 min 0 W/m 9,7 km/h (2 Bft) 93,88 %
12.01.2019 00:58 5,8 C 5,0 C 4,4 C 99 % 1022,0 hPa 0,0 l/m 0 min 0 min 0 W/m 9,7 km/h (2 Bft) 93,62 %
12.01.2019 01:00 5,8 C 5,0 C 4,4 C 99 % 1022,1 hPa 0,0 l/m 0 min 0 min 0 W/m 6,4 km/h (2 Bft) 93,48 %
12.01.2019 01:02 5,8 C 5,0 C 4,4 C 99 % 1022,1 hPa 0,0 l/m 0 min 0 min 0 W/m 6,4 km/h (2 Bft) 92,86 %
12.01.2019 01:04 5,8 C 5,0 C 4,4 C 99 % 1022,1 hPa 0,0 l/m 0 min 0 min 0 W/m 6,4 km/h (2 Bft) 95,74 %
12.01.2019 01:06 5,8 C 5,0 C 4,4 C 99 % 1022,0 hPa 0,0 l/m 0 min 0 min 0 W/m 9,7 km/h (2 Bft) 91,84 %
12.01.2019 01:08 5,8 C 5,0 C 4,4 C 99 % 1022,0 hPa 0,0 l/m 0 min 0 min 0 W/m 6,4 km/h (2 Bft) 93,88 %
12.01.2019 01:10 5,8 C 5,0 C 4,4 C 99 % 1022,1 hPa 0,0 l/m 0 min 0 min 0 W/m 6,4 km/h (2 Bft) 89,36 %
12.01.2019 01:12 5,8 C 5,0 C 4,4 C 99 % 1022,0 hPa 0,0 l/m 0 min 0 min 0 W/m 9,7 km/h (2 Bft) 93,88 %
12.01.2019 01:14 5,8 C 5,0 C 4,4 C 99 % 1022,1 hPa 0,0 l/m 0 min 0 min 0 W/m 9,7 km/h (2 Bft) 91,67 %
12.01.2019 01:16 5,8 C 5,0 C 4,4 C 99 % 1022,0 hPa 0,0 l/m 0 min 0 min 0 W/m 9,7 km/h (2 Bft) 95,74 %
12.01.2019 01:18 5,8 C 5,0 C 4,4 C 99 % 1022,0 hPa 0,0 l/m 0 min 0 min 0 W/m 9,7 km/h (2 Bft) 95,74 %
12.01.2019 01:20 5,8 C 5,0 C 4,4 C 99 % 1022,0 hPa 0,0 l/m 0 min 0 min 0 W/m 9,7 km/h (2 Bft) 95,12 %
12.01.2019 01:22 5,8 C 5,0 C 4,4 C 99 % 1022,0 hPa 0,0 l/m 0 min 0 min 0 W/m 9,7 km/h (2 Bft) 95,92 %
12.01.2019 01:24 5,8 C 5,0 C 4,4 C 99 % 1022,1 hPa 0,0 l/m 0 min 0 min 0 W/m 16,1 km/h (3 Bft) 93,88 %
12.01.2019 01:26 5,7 C 5,0 C 4,4 C 99 % 1022,0 hPa 0,0 l/m 0 min 0 min 0 W/m 9,7 km/h (2 Bft) 97,92 %
12.01.2019 01:28 5,8 C 5,0 C 4,4 C 99 % 1021,9 hPa 0,0 l/m 0 min 0 min 0 W/m 3,2 km/h (1 Bft) 97,87 %
12.01.2019 01:30 5,7 C 5,0 C 4,4 C 99 % 1022,0 hPa 0,0 l/m 0 min 0 min 0 W/m 6,4 km/h (2 Bft) 97,87 %
12.01.2019 01:32 5,8 C 5,0 C 4,4 C 99 % 1021,9 hPa 0,0 l/m 0 min 0 min 0 W/m 12,9 km/h (3 Bft) 92,86 %
12.01.2019 01:34 5,7 C 5,0 C 4,4 C 99 % 1021,9 hPa 0,0 l/m 0 min 0 min 0 W/m 3,2 km/h (1 Bft) 97,96 %
12.01.2019 01:36 5,7 C 5,0 C 4,4 C 99 % 1021,9 hPa 0,0 l/m 0 min 0 min 0 W/m 6,4 km/h (2 Bft) 97,96 %
12.01.2019 01:38 5,7 C 5,0 C 4,4 C 99 % 1021,9 hPa 0,0 l/m 0 min 2 min 0 W/m 9,7 km/h (2 Bft) 100,00 %
12.01.2019 01:40 5,7 C 5,0 C 4,4 C 99 % 1021,9 hPa 0,0 l/m 0 min 2 min 0 W/m 16,1 km/h (3 Bft) 97,30 %
12.01.2019 01:42 5,7 C 5,0 C 4,4 C 99 % 1021,9 hPa 0,0 l/m 0 min 2 min 0 W/m 6,4 km/h (2 Bft) 97,87 %
12.01.2019 01:44 5,7 C 5,0 C 4,4 C 99 % 1021,8 hPa 0,0 l/m 0 min 2 min 0 W/m 6,4 km/h (2 Bft) 95,74 %
12.01.2019 01:46 5,7 C 5,0 C 4,4 C 99 % 1021,8 hPa 0,0 l/m 0 min 2 min 0 W/m 12,9 km/h (3 Bft) 100,00 %
12.01.2019 01:48 5,8 C 5,0 C 4,4 C 99 % 1021,8 hPa 0,0 l/m 0 min 2 min 0 W/m 12,9 km/h (3 Bft) 100,00 %
12.01.2019 01:50 5,7 C 5,0 C 4,4 C 99 % 1021,8 hPa 0,0 l/m 0 min 2 min 0 W/m 12,9 km/h (3 Bft) 100,00 %
12.01.2019 01:52 5,8 C 5,0 C 4,4 C 99 % 1021,8 hPa 0,0 l/m 0 min 2 min 0 W/m 12,9 km/h (3 Bft) 97,92 %
12.01.2019 01:54 5,7 C 5,0 C 4,4 C 99 % 1021,9 hPa 0,0 l/m 0 min 2 min 0 W/m 12,9 km/h (3 Bft) 97,87 %
12.01.2019 01:56 5,7 C 5,0 C 4,4 C 99 % 1021,9 hPa 0,0 l/m 0 min 2 min 0 W/m 9,7 km/h (2 Bft) 100,00 %
12.01.2019 01:58 5,8 C 5,0 C 4,4 C 99 % 1021,8 hPa 0,0 l/m 0 min 2 min 0 W/m 12,9 km/h (3 Bft) 100,00 %
12.01.2019 02:00 5,7 C 5,0 C 4,4 C 99 % 1021,8 hPa 0,0 l/m 0 min 0 min 0 W/m 19,3 km/h (3 Bft) 100,00 %
12.01.2019 02:02 5,7 C 5,0 C 4,4 C 99 % 1021,8 hPa 0,0 l/m 0 min 0 min 0 W/m 9,7 km/h (2 Bft) 97,87 %
12.01.2019 02:04 5,7 C 5,0 C 4,4 C 99 % 1021,8 hPa 0,0 l/m 0 min 0 min 0 W/m 16,1 km/h (3 Bft) 100,00 %
12.01.2019 02:06 5,7 C 5,0 C 4,4 C 99 % 1021,7 hPa 0,0 l/m 0 min 0 min 0 W/m 9,7 km/h (2 Bft) 100,00 %
12.01.2019 02:08 5,7 C 5,0 C 4,4 C 99 % 1021,8 hPa 0,0 l/m 0 min 0 min 0 W/m 9,7 km/h (2 Bft) 100,00 %
12.01.2019 02:10 5,7 C 5,0 C 4,4 C 99 % 1021,8 hPa 0,0 l/m 0 min 0 min 0 W/m 9,7 km/h (2 Bft) 100,00 %
12.01.2019 02:12 5,7 C 5,0 C 4,4 C 99 % 1021,7 hPa 0,0 l/m 0 min 0 min 0 W/m 12,9 km/h (3 Bft) 97,83 %
12.01.2019 02:14 5,7 C 5,0 C 4,4 C 99 % 1021,8 hPa 0,0 l/m 0 min 0 min 0 W/m 9,7 km/h (2 Bft) 100,00 %
12.01.2019 02:16 5,7 C 5,0 C 4,4 C 99 % 1021,8 hPa 0,0 l/m 0 min 0 min 0 W/m 16,1 km/h (3 Bft) 100,00 %
12.01.2019 02:18 5,7 C 5,0 C 4,4 C 99 % 1021,8 hPa 0,0 l/m 0 min 0 min 0 W/m 12,9 km/h (3 Bft) 100,00 %
12.01.2019 02:20 5,7 C 5,0 C 4,4 C 99 % 1021,8 hPa 0,0 l/m 0 min 0 min 0 W/m 9,7 km/h (2 Bft) 100,00 %
12.01.2019 02:22 5,7 C 5,0 C 4,4 C 99 % 1021,8 hPa 0,0 l/m 0 min 0 min 0 W/m 3,2 km/h (1 Bft) 100,00 %
12.01.2019 02:24 5,7 C 5,0 C 4,4 C 99 % 1021,8 hPa 0,0 l/m 0 min 0 min 0 W/m 9,7 km/h (2 Bft) 100,00 %
12.01.2019 02:26 5,7 C 5,0 C 4,4 C 99 % 1021,8 hPa 0,0 l/m 0 min 0 min 0 W/m 6,4 km/h (2 Bft) 97,96 %
12.01.2019 02:28 5,7 C 5,0 C 4,4 C 99 % 1021,8 hPa 0,0 l/m 0 min 0 min 0 W/m 12,9 km/h (3 Bft) 97,92 %
12.01.2019 02:30 5,7 C 5,0 C 4,4 C 99 % 1021,8 hPa 0,0 l/m 0 min 0 min 0 W/m 12,9 km/h (3 Bft) 100,00 %
12.01.2019 02:32 5,7 C 5,0 C 4,4 C 99 % 1021,8 hPa 0,0 l/m 0 min 0 min 0 W/m 12,9 km/h (3 Bft) 100,00 %
12.01.2019 02:34 5,7 C 5,0 C 4,4 C 99 % 1021,9 hPa 0,0 l/m 0 min 0 min 0 W/m 9,7 km/h (2 Bft) 100,00 %
12.01.2019 02:36 5,7 C 5,0 C 4,4 C 99 % 1021,8 hPa 0,0 l/m 0 min 0 min 0 W/m 12,9 km/h (3 Bft) 98,28 %
12.01.2019 02:38 5,7 C 5,0 C 4,4 C 99 % 1021,8 hPa 0,0 l/m 0 min 0 min 0 W/m 12,9 km/h (3 Bft) 100,00 %
12.01.2019 02:40 5,7 C 5,0 C 4,4 C 99 % 1021,8 hPa 0,0 l/m 0 min 2 min 0 W/m 9,7 km/h (2 Bft) 100,00 %
12.01.2019 02:42 5,7 C 5,0 C 4,4 C 99 % 1021,8 hPa 0,0 l/m 0 min 2 min 0 W/m 12,9 km/h (3 Bft) 100,00 %
12.01.2019 02:44 5,7 C 5,0 C 4,4 C 99 % 1021,9 hPa 0,0 l/m 0 min 2 min 0 W/m 9,7 km/h (2 Bft) 97,96 %
12.01.2019 02:46 5,7 C 5,0 C 4,4 C 99 % 1021,9 hPa 0,0 l/m 0 min 2 min 0 W/m 6,4 km/h (2 Bft) 97,87 %
12.01.2019 02:48 5,7 C 5,0 C 4,4 C 99 % 1021,8 hPa 0,2 l/m 0 min 2 min 0 W/m 12,9 km/h (3 Bft) 100,00 %
12.01.2019 02:50 5,7 C 5,0 C 4,4 C 99 % 1021,9 hPa 0,0 l/m 0 min 2 min 0 W/m 9,7 km/h (2 Bft) 100,00 %
12.01.2019 02:52 5,7 C 5,0 C 4,4 C 99 % 1021,8 hPa 0,0 l/m 0 min 2 min 0 W/m 6,4 km/h (2 Bft) 100,00 %
12.01.2019 02:54 5,7 C 5,0 C 4,4 C 99 % 1021,9 hPa 0,0 l/m 0 min 2 min 0 W/m 9,7 km/h (2 Bft) 97,87 %
12.01.2019 02:56 5,7 C 5,0 C 4,4 C 99 % 1021,8 hPa 0,0 l/m 0 min 2 min 0 W/m 6,4 km/h (2 Bft) 100,00 %
12.01.2019 02:58 5,7 C 5,0 C 4,4 C 99 % 1021,8 hPa 0,0 l/m 0 min 0 min 0 W/m 6,4 km/h (2 Bft) 100,00 %
12.01.2019 03:00 5,7 C 5,0 C 4,4 C 99 % 1021,8 hPa 0,0 l/m 0 min 0 min 0 W/m 6,4 km/h (2 Bft) 100,00 %
12.01.2019 03:02 5,7 C 5,0 C 4,4 C 99 % 1021,7 hPa 0,0 l/m 0 min 2 min 0 W/m 6,4 km/h (2 Bft) 100,00 %
12.01.2019 03:04 5,7 C 5,0 C 4,4 C 99 % 1021,7 hPa 0,2 l/m 0 min 2 min 0 W/m 12,9 km/h (3 Bft) 100,00 %
12.01.2019 03:06 5,7 C 5,0 C 4,4 C 99 % 1021,7 hPa 0,0 l/m 0 min 0 min 0 W/m 12,9 km/h (3 Bft) 100,00 %
12.01.2019 03:08 5,7 C 5,0 C 4,4 C 99 % 1021,7 hPa 0,0 l/m 0 min 0 min 0 W/m 3,2 km/h (1 Bft) 100,00 %
12.01.2019 03:10 5,7 C 5,0 C 4,4 C 99 % 1021,6 hPa 0,0 l/m 0 min 0 min 0 W/m 3,2 km/h (1 Bft) 95,74 %
12.01.2019 03:12 5,7 C 5,0 C 4,4 C 99 % 1021,7 hPa 0,0 l/m 0 min 0 min 0 W/m 9,7 km/h (2 Bft) 100,00 %
12.01.2019 03:14 5,7 C 5,0 C 4,4 C 99 % 1021,6 hPa 0,0 l/m 0 min 0 min 0 W/m 6,4 km/h (2 Bft) 97,87 %
12.01.2019 03:16 5,7 C 5,0 C 4,4 C 99 % 1021,6 hPa 0,0 l/m 0 min 2 min 0 W/m 3,2 km/h (1 Bft) 97,83 %
12.01.2019 03:18 5,7 C 5,0 C 4,4 C 99 % 1021,6 hPa 0,0 l/m 0 min 2 min 0 W/m 6,4 km/h (2 Bft) 95,74 %
12.01.2019 03:20 5,7 C 5,0 C 4,4 C 99 % 1021,6 hPa 0,0 l/m 0 min 0 min 0 W/m 3,2 km/h (1 Bft) 97,87 %
12.01.2019 03:22 5,7 C 5,0 C 4,4 C 99 % 1021,6 hPa 0,0 l/m 0 min 0 min 0 W/m 6,4 km/h (2 Bft) 97,87 %
12.01.2019 03:24 5,7 C 5,0 C 4,4 C 99 % 1021,6 hPa 0,0 l/m 0 min 0 min 0 W/m 6,4 km/h (2 Bft) 95,74 %
12.01.2019 03:26 5,7 C 5,0 C 4,4 C 99 % 1021,6 hPa 0,0 l/m 0 min 0 min 0 W/m 6,4 km/h (2 Bft) 93,62 %
12.01.2019 03:28 5,7 C 5,0 C 4,4 C 99 % 1021,6 hPa 0,0 l/m 0 min 0 min 0 W/m 9,7 km/h (2 Bft) 93,48 %
12.01.2019 03:30 5,7 C 5,0 C 4,4 C 99 % 1021,5 hPa 0,0 l/m 0 min 0 min 0 W/m 16,1 km/h (3 Bft) 95,74 %
12.01.2019 03:32 5,7 C 5,0 C 4,4 C 99 % 1021,5 hPa 0,0 l/m 0 min 0 min 0 W/m 12,9 km/h (3 Bft) 93,62 %
12.01.2019 03:34 5,7 C 5,0 C 4,4 C 99 % 1021,5 hPa 0,0 l/m 0 min 0 min 0 W/m 6,4 km/h (2 Bft) 95,74 %
12.01.2019 03:36 5,7 C 5,0 C 4,4 C 99 % 1021,4 hPa 0,0 l/m 0 min 0 min 0 W/m 3,2 km/h (1 Bft) 94,83 %
12.01.2019 03:38 5,6 C 5,0 C 4,4 C 99 % 1021,5 hPa 0,0 l/m 0 min 0 min 0 W/m 16,1 km/h (3 Bft) 100,00 %
12.01.2019 03:40 5,6 C 5,0 C 4,4 C 99 % 1021,5 hPa 0,0 l/m 0 min 2 min 0 W/m 12,9 km/h (3 Bft) 93,48 %
12.01.2019 03:42 5,6 C 5,0 C 4,4 C 99 % 1021,4 hPa 0,0 l/m 0 min 0 min 0 W/m 9,7 km/h (2 Bft) 93,62 %
12.01.2019 03:44 5,6 C 5,0 C 4,4 C 99 % 1021,5 hPa 0,0 l/m 0 min 0 min 0 W/m 9,7 km/h (2 Bft) 95,74 %
12.01.2019 03:46 5,6 C 5,0 C 4,4 C 99 % 1021,4 hPa 0,0 l/m 0 min 0 min 0 W/m 12,9 km/h (3 Bft) 93,62 %
12.01.2019 03:48 5,6 C 5,0 C 4,4 C 99 % 1021,4 hPa 0,0 l/m 0 min 0 min 0 W/m 22,5 km/h (4 Bft) 93,62 %
12.01.2019 03:50 5,6 C 5,0 C 4,4 C 99 % 1021,4 hPa 0,0 l/m 0 min 0 min 0 W/m 9,7 km/h (2 Bft) 95,74 %
12.01.2019 03:52 5,6 C 5,0 C 4,4 C 99 % 1021,4 hPa 0,0 l/m 0 min 0 min 0 W/m 9,7 km/h (2 Bft) 97,83 %
12.01.2019 03:54 5,6 C 5,0 C 4,4 C 99 % 1021,4 hPa 0,0 l/m 0 min 0 min 0 W/m 9,7 km/h (2 Bft) 97,87 %
12.01.2019 03:56 5,6 C 5,0 C 4,4 C 99 % 1021,4 hPa 0,0 l/m 0 min 2 min 0 W/m 12,9 km/h (3 Bft) 93,62 %
12.01.2019 03:58 5,6 C 5,0 C 4,4 C 99 % 1021,4 hPa 0,0 l/m 0 min 2 min 0 W/m 16,1 km/h (3 Bft) 95,74 %
12.01.2019 04:00 5,6 C 5,0 C 4,4 C 99 % 1021,3 hPa 0,0 l/m 0 min 0 min 0 W/m 12,9 km/h (3 Bft) 93,62 %
12.01.2019 04:05 5,6 C 5,0 C 4,4 C 99 % 1021,2 hPa 0,0 l/m 0 min 0 min 0 W/m 12,9 km/h (3 Bft) 98,70 %
12.01.2019 04:06 5,6 C 5,0 C 4,4 C 99 % 1021,3 hPa 0,0 l/m 0 min 0 min 0 W/m 16,1 km/h (3 Bft) 89,47 %
12.01.2019 04:08 5,6 C 5,0 C 4,4 C 99 % 1021,3 hPa 0,0 l/m 0 min 0 min 0 W/m 9,7 km/h (2 Bft) 95,74 %
12.01.2019 04:10 5,6 C 5,0 C 4,4 C 99 % 1021,3 hPa 0,0 l/m 0 min 0 min 0 W/m 9,7 km/h (2 Bft) 95,74 %
12.01.2019 04:12 5,6 C 5,0 C 4,4 C 99 % 1021,3 hPa 0,0 l/m 0 min 0 min 0 W/m 9,7 km/h (2 Bft) 93,62 %
12.01.2019 04:14 5,6 C 5,0 C 4,4 C 99 % 1021,2 hPa 0,0 l/m 0 min 2 min 0 W/m 12,9 km/h (3 Bft) 95,74 %
12.01.2019 04:16 5,5 C 5,0 C 4,4 C 99 % 1021,2 hPa 0,2 l/m 0 min 2 min 0 W/m 12,9 km/h (3 Bft) 93,62 %
12.01.2019 04:18 5,5 C 5,0 C 4,4 C 99 % 1021,2 hPa 0,0 l/m 0 min 2 min 0 W/m 6,4 km/h (2 Bft) 95,92 %
12.01.2019 04:20 5,5 C 5,0 C 4,4 C 99 % 1021,1 hPa 0,0 l/m 0 min 2 min 0 W/m 6,4 km/h (2 Bft) 97,87 %
12.01.2019 04:22 5,5 C 5,0 C 4,4 C 99 % 1021,0 hPa 0,0 l/m 0 min 0 min 0 W/m 12,9 km/h (3 Bft) 97,87 %
12.01.2019 04:24 5,5 C 5,0 C 4,4 C 99 % 1021,0 hPa 0,0 l/m 0 min 2 min 0 W/m 3,2 km/h (1 Bft) 97,87 %
12.01.2019 04:26 5,5 C 5,0 C 4,4 C 99 % 1021,0 hPa 0,0 l/m 0 min 0 min 0 W/m 6,4 km/h (2 Bft) 97,87 %
12.01.2019 04:28 5,5 C 5,0 C 4,4 C 99 % 1021,0 hPa 0,0 l/m 0 min 2 min 0 W/m 12,9 km/h (3 Bft) 97,87 %
12.01.2019 04:30 5,5 C 5,0 C 4,4 C 99 % 1021,0 hPa 0,0 l/m 0 min 2 min 0 W/m 6,4 km/h (2 Bft) 97,83 %
12.01.2019 04:32 5,5 C 5,0 C 4,4 C 99 % 1021,0 hPa 0,0 l/m 0 min 2 min 0 W/m 6,4 km/h (2 Bft) 100,00 %
12.01.2019 04:34 5,4 C 5,0 C 4,4 C 99 % 1020,9 hPa 0,0 l/m 0 min 2 min 0 W/m 9,7 km/h (2 Bft) 97,87 %
12.01.2019 04:36 5,5 C 5,0 C 4,4 C 99 % 1020,9 hPa 0,0 l/m 0 min 0 min 0 W/m 6,4 km/h (2 Bft) 97,87 %
12.01.2019 04:38 5,4 C 5,0 C 4,4 C 99 % 1020,9 hPa 0,2 l/m 0 min 2 min 0 W/m 12,9 km/h (3 Bft) 93,75 %
12.01.2019 04:40 5,4 C 5,0 C 4,4 C 99 % 1020,9 hPa 0,0 l/m 0 min 2 min 0 W/m 9,7 km/h (2 Bft) 97,83 %
12.01.2019 04:42 5,4 C 5,0 C 4,4 C 99 % 1020,9 hPa 0,0 l/m 0 min 2 min 0 W/m 3,2 km/h (1 Bft) 97,87 %
12.01.2019 04:44 5,4 C 5,0 C 4,4 C 99 % 1020,8 hPa 0,0 l/m 0 min 0 min 0 W/m 6,4 km/h (2 Bft) 95,74 %
12.01.2019 04:46 5,4 C 5,0 C 4,4 C 99 % 1020,8 hPa 0,0 l/m 0 min 0 min 0 W/m 6,4 km/h (2 Bft) 93,62 %
12.01.2019 04:48 5,4 C 4,4 C 4,4 C 99 % 1020,8 hPa 0,0 l/m 0 min 0 min 0 W/m 6,4 km/h (2 Bft) 97,87 %
12.01.2019 04:50 5,4 C 4,4 C 4,4 C 99 % 1020,8 hPa 0,0 l/m 0 min 0 min 0 W/m 6,4 km/h (2 Bft) 100,00 %
12.01.2019 04:52 5,4 C 4,4 C 4,4 C 99 % 1020,7 hPa 0,0 l/m 0 min 0 min 0 W/m 6,4 km/h (2 Bft) 100,00 %
12.01.2019 04:54 5,4 C 4,4 C 3,9 C 99 % 1020,7 hPa 0,0 l/m 0 min 0 min 0 W/m 3,2 km/h (1 Bft) 100,00 %
12.01.2019 04:56 5,4 C 4,4 C 3,9 C 99 % 1020,7 hPa 0,0 l/m 0 min 0 min 0 W/m 3,2 km/h (1 Bft) 100,00 %
12.01.2019 04:58 5,4 C 4,4 C 3,9 C 99 % 1020,7 hPa 0,0 l/m 0 min 0 min 0 W/m 6,4 km/h (2 Bft) 97,87 %
12.01.2019 05:00 5,4 C 4,4 C 3,9 C 99 % 1020,7 hPa 0,0 l/m 0 min 0 min 0 W/m 9,7 km/h (2 Bft) 100,00 %
12.01.2019 05:02 5,3 C 4,4 C 3,9 C 99 % 1020,7 hPa 0,0 l/m 0 min 0 min 0 W/m 16,1 km/h (3 Bft) 95,74 %
12.01.2019 05:04 5,3 C 4,4 C 3,9 C 99 % 1020,8 hPa 0,0 l/m 0 min 0 min 0 W/m 16,1 km/h (3 Bft) 100,00 %
12.01.2019 05:05 5,3 C 4,4 C 3,9 C 99 % 1020,7 hPa 0,0 l/m 0 min 0 min 0 W/m 16,1 km/h (3 Bft) 100,00 %
12.01.2019 05:10 5,3 C 4,4 C 3,9 C 99 % 1020,6 hPa 0,0 l/m 0 min 0 min 0 W/m 12,9 km/h (3 Bft) 100,00 %
12.01.2019 05:12 5,3 C 4,4 C 3,9 C 99 % 1020,6 hPa 0,0 l/m 0 min 0 min 0 W/m 3,2 km/h (1 Bft) 83,33 %
12.01.2019 05:14 5,3 C 4,4 C 3,9 C 99 % 1020,6 hPa 0,0 l/m 0 min 0 min 0 W/m 12,9 km/h (3 Bft) 100,00 %
12.01.2019 05:16 5,3 C 4,4 C 3,9 C 99 % 1020,6 hPa 0,0 l/m 0 min 0 min 0 W/m 6,4 km/h (2 Bft) 100,00 %
12.01.2019 05:18 5,3 C 4,4 C 3,9 C 99 % 1020,7 hPa 0,0 l/m 0 min 0 min 0 W/m 6,4 km/h (2 Bft) 100,00 %
12.01.2019 05:20 5,3 C 4,4 C 3,9 C 99 % 1020,7 hPa 0,0 l/m 0 min 0 min 0 W/m 9,7 km/h (2 Bft) 97,87 %
12.01.2019 05:22 5,3 C 4,4 C 3,9 C 99 % 1020,7 hPa 0,0 l/m 0 min 0 min 0 W/m 6,4 km/h (2 Bft) 100,00 %
12.01.2019 05:24 5,3 C 4,4 C 3,9 C 99 % 1020,7 hPa 0,0 l/m 0 min 0 min 0 W/m 12,9 km/h (3 Bft) 100,00 %
12.01.2019 05:26 5,3 C 4,4 C 3,9 C 99 % 1020,6 hPa 0,0 l/m 0 min 0 min 0 W/m 6,4 km/h (2 Bft) 100,00 %
12.01.2019 05:28 5,3 C 4,4 C 3,9 C 99 % 1020,6 hPa 0,0 l/m 0 min 0 min 0 W/m 9,7 km/h (2 Bft) 100,00 %
12.01.2019 05:30 5,3 C 4,4 C 3,9 C 99 % 1020,5 hPa 0,0 l/m 0 min 0 min 0 W/m 9,7 km/h (2 Bft) 100,00 %
12.01.2019 05:32 5,3 C 4,4 C 3,9 C 99 % 1020,5 hPa 0,0 l/m 0 min 0 min 0 W/m 12,9 km/h (3 Bft) 100,00 %
12.01.2019 05:34 5,3 C 4,4 C 3,9 C 99 % 1020,6 hPa 0,0 l/m 0 min 0 min 0 W/m 9,7 km/h (2 Bft) 100,00 %
12.01.2019 05:36 5,3 C 4,4 C 3,9 C 99 % 1020,5 hPa 0,0 l/m 0 min 0 min 0 W/m 12,9 km/h (3 Bft) 97,87 %
12.01.2019 05:38 5,3 C 4,4 C 3,9 C 99 % 1020,5 hPa 0,0 l/m 0 min 0 min 0 W/m 6,4 km/h (2 Bft) 100,00 %
12.01.2019 05:40 5,2 C 4,4 C 3,9 C 99 % 1020,6 hPa 0,0 l/m 0 min 0 min 0 W/m 19,3 km/h (3 Bft) 100,00 %
12.01.2019 05:42 5,3 C 4,4 C 3,9 C 99 % 1020,6 hPa 0,0 l/m 0 min 0 min 0 W/m 6,4 km/h (2 Bft) 97,87 %
12.01.2019 05:44 5,2 C 4,4 C 3,9 C 99 % 1020,6 hPa 0,0 l/m 0 min 0 min 0 W/m 9,7 km/h (2 Bft) 95,74 %
12.01.2019 05:46 5,2 C 4,4 C 3,9 C 99 % 1020,6 hPa 0,0 l/m 0 min 0 min 0 W/m 6,4 km/h (2 Bft) 95,65 %
12.01.2019 05:48 5,2 C 4,4 C 3,9 C 99 % 1020,6 hPa 0,0 l/m 0 min 2 min 0 W/m 16,1 km/h (3 Bft) 97,87 %
12.01.2019 05:50 5,2 C 4,4 C 3,9 C 99 % 1020,6 hPa 0,0 l/m 0 min 2 min 0 W/m 6,4 km/h (2 Bft) 97,87 %
12.01.2019 05:52 5,2 C 4,4 C 3,9 C 99 % 1020,6 hPa 0,0 l/m 0 min 2 min 0 W/m 6,4 km/h (2 Bft) 97,87 %
12.01.2019 05:54 5,2 C 4,4 C 3,9 C 99 % 1020,6 hPa 0,0 l/m 0 min 2 min 0 W/m 12,9 km/h (3 Bft) 97,87 %
12.01.2019 05:56 5,2 C 4,4 C 3,9 C 99 % 1020,7 hPa 0,0 l/m 0 min 2 min 0 W/m 9,7 km/h (2 Bft) 97,87 %
12.01.2019 05:58 5,2 C 4,4 C 3,9 C 99 % 1020,6 hPa 0,0 l/m 0 min 2 min 0 W/m 6,4 km/h (2 Bft) 95,65 %
12.01.2019 06:00 5,2 C 4,4 C 3,9 C 99 % 1020,6 hPa 0,0 l/m 0 min 2 min 0 W/m 12,9 km/h (3 Bft) 97,87 %
12.01.2019 06:02 5,2 C 4,4 C 3,9 C 99 % 1020,6 hPa 0,0 l/m 0 min 0 min 0 W/m 9,7 km/h (2 Bft) 97,87 %
12.01.2019 06:04 5,2 C 4,4 C 3,9 C 99 % 1020,5 hPa 0,0 l/m 0 min 0 min 0 W/m 6,4 km/h (2 Bft) 95,74 %
12.01.2019 06:07 5,2 C 4,4 C 3,9 C 99 % 1020,4 hPa 0,0 l/m 0 min 0 min 0 W/m 12,9 km/h (3 Bft) 98,57 %
12.01.2019 06:08 5,2 C 4,4 C 3,9 C 99 % 1020,4 hPa 0,0 l/m 0 min 0 min 0 W/m 3,2 km/h (1 Bft) 91,67 %
12.01.2019 06:10 5,2 C 4,4 C 3,9 C 99 % 1020,5 hPa 0,0 l/m 0 min 0 min 0 W/m 3,2 km/h (1 Bft) 97,83 %
12.01.2019 06:12 5,2 C 4,4 C 3,9 C 99 % 1020,5 hPa 0,0 l/m 0 min 0 min 0 W/m 6,4 km/h (2 Bft) 97,87 %
12.01.2019 06:14 5,2 C 4,4 C 3,9 C 99 % 1020,4 hPa 0,0 l/m 0 min 0 min 0 W/m 3,2 km/h (1 Bft) 93,62 %
12.01.2019 06:16 5,2 C 4,4 C 3,9 C 99 % 1020,4 hPa 0,0 l/m 0 min 0 min 0 W/m 9,7 km/h (2 Bft) 97,87 %
12.01.2019 06:18 5,2 C 4,4 C 3,9 C 99 % 1020,5 hPa 0,0 l/m 0 min 0 min 0 W/m 6,4 km/h (2 Bft) 97,87 %
12.01.2019 06:20 5,2 C 4,4 C 3,9 C 99 % 1020,5 hPa 0,0 l/m 0 min 0 min 0 W/m 6,4 km/h (2 Bft) 93,62 %
12.01.2019 06:22 5,2 C 4,4 C 3,9 C 99 % 1020,5 hPa 0,0 l/m 0 min 0 min 0 W/m 6,4 km/h (2 Bft) 97,83 %
12.01.2019 06:24 5,2 C 4,4 C 3,9 C 99 % 1020,6 hPa 0,0 l/m 0 min 0 min 0 W/m 9,7 km/h (2 Bft) 95,74 %
12.01.2019 06:26 5,2 C 4,4 C 3,9 C 99 % 1020,5 hPa 0,0 l/m 0 min 2 min 0 W/m 6,4 km/h (2 Bft) 97,87 %
12.01.2019 06:28 5,2 C 4,4 C 3,9 C 99 % 1020,5 hPa 0,0 l/m 0 min 2 min 0 W/m 9,7 km/h (2 Bft) 95,74 %
12.01.2019 06:30 5,2 C 4,4 C 3,9 C 99 % 1020,5 hPa 0,0 l/m 0 min 2 min 0 W/m 6,4 km/h (2 Bft) 97,87 %
12.01.2019 06:32 5,2 C 4,4 C 3,9 C 99 % 1020,5 hPa 0,0 l/m 0 min 2 min 0 W/m 9,7 km/h (2 Bft) 95,74 %
12.01.2019 06:34 5,2 C 4,4 C 3,9 C 99 % 1020,5 hPa 0,0 l/m 0 min 2 min 0 W/m 9,7 km/h (2 Bft) 97,83 %
12.01.2019 06:36 5,2 C 4,4 C 3,9 C 99 % 1020,5 hPa 0,0 l/m 0 min 2 min 0 W/m 6,4 km/h (2 Bft) 94,34 %
12.01.2019 06:40 5,1 C 4,4 C 3,9 C 99 % 1020,4 hPa 0,0 l/m 0 min 0 min 0 W/m 9,7 km/h (2 Bft) 99,12 %
12.01.2019 06:45 5,1 C 4,4 C 3,9 C 99 % 1020,4 hPa 0,0 l/m 0 min 0 min 0 W/m 3,2 km/h (1 Bft) 94,44 %
12.01.2019 06:46 5,1 C 4,4 C 3,9 C 99 % 1020,4 hPa 0,0 l/m 0 min 0 min 0 W/m 3,2 km/h (1 Bft) 100,00 %
12.01.2019 06:48 5,1 C 4,4 C 3,9 C 99 % 1020,4 hPa 0,0 l/m 0 min 0 min 0 W/m 6,4 km/h (2 Bft) 98,18 %
12.01.2019 06:50 5,1 C 4,4 C 3,9 C 99 % 1020,4 hPa 0,0 l/m 0 min 0 min 0 W/m 9,7 km/h (2 Bft) 95,92 %
12.01.2019 06:52 5,1 C 4,4 C 3,9 C 99 % 1020,4 hPa 0,0 l/m 0 min 0 min 0 W/m 0,0 km/h (0 Bft) 97,92 %
12.01.2019 06:54 5,1 C 4,4 C 3,9 C 99 % 1020,3 hPa 0,0 l/m 0 min 0 min 0 W/m 6,4 km/h (2 Bft) 100,00 %
12.01.2019 06:56 5,1 C 4,4 C 3,9 C 99 % 1020,3 hPa 0,0 l/m 0 min 0 min 0 W/m 6,4 km/h (2 Bft) 95,74 %
12.01.2019 06:58 5,1 C 4,4 C 3,9 C 99 % 1020,3 hPa 0,0 l/m 0 min 0 min 0 W/m 3,2 km/h (1 Bft) 98,15 %
12.01.2019 07:00 5,0 C 4,4 C 3,9 C 99 % 1020,2 hPa 0,0 l/m 0 min 0 min 0 W/m 3,2 km/h (1 Bft) 97,14 %
12.01.2019 07:02 5,1 C 4,4 C 3,9 C 99 % 1020,2 hPa 0,0 l/m 0 min 0 min 0 W/m 0,0 km/h (0 Bft) 91,49 %
12.01.2019 07:04 5,0 C 4,4 C 3,9 C 99 % 1020,2 hPa 0,0 l/m 0 min 0 min 0 W/m 3,2 km/h (1 Bft) 97,87 %
12.01.2019 07:06 5,0 C 4,4 C 3,9 C 99 % 1020,1 hPa 0,0 l/m 0 min 0 min 0 W/m 6,4 km/h (2 Bft) 98,28 %
12.01.2019 07:08 5,0 C 4,4 C 3,9 C 99 % 1020,1 hPa 0,0 l/m 0 min 0 min 0 W/m 9,7 km/h (2 Bft) 97,87 %
12.01.2019 07:10 5,0 C 4,4 C 3,9 C 99 % 1020,1 hPa 0,0 l/m 0 min 0 min 0 W/m 3,2 km/h (1 Bft) 94,29 %
12.01.2019 07:12 5,0 C 4,4 C 3,9 C 99 % 1020,1 hPa 0,0 l/m 0 min 0 min 0 W/m 3,2 km/h (1 Bft) 95,74 %
12.01.2019 07:14 5,0 C 4,4 C 3,9 C 99 % 1020,1 hPa 0,0 l/m 0 min 0 min 0 W/m 9,7 km/h (2 Bft) 93,62 %
12.01.2019 07:16 5,0 C 4,4 C 3,9 C 99 % 1020,1 hPa 0,0 l/m 0 min 0 min 0 W/m 6,4 km/h (2 Bft) 97,87 %
12.01.2019 07:18 5,0 C 4,4 C 3,9 C 99 % 1020,3 hPa 0,0 l/m 0 min 0 min 0 W/m 9,7 km/h (2 Bft) 93,10 %
12.01.2019 07:20 5,0 C 4,4 C 3,9 C 99 % 1020,2 hPa 0,0 l/m 0 min 0 min 0 W/m 12,9 km/h (3 Bft) 100,00 %
12.01.2019 07:22 4,9 C 4,4 C 3,9 C 99 % 1020,1 hPa 0,0 l/m 0 min 0 min 0 W/m 3,2 km/h (1 Bft) 97,87 %
12.01.2019 07:24 4,9 C 4,4 C 3,9 C 99 % 1020,3 hPa 0,0 l/m 0 min 0 min 0 W/m 6,4 km/h (2 Bft) 97,87 %
12.01.2019 07:26 4,9 C 4,4 C 3,9 C 99 % 1020,2 hPa 0,0 l/m 0 min 0 min 0 W/m 6,4 km/h (2 Bft) 97,87 %
12.01.2019 07:28 4,9 C 4,4 C 3,9 C 99 % 1020,1 hPa 0,0 l/m 0 min 0 min 0 W/m 9,7 km/h (2 Bft) 98,28 %
12.01.2019 07:30 4,9 C 4,4 C 3,9 C 99 % 1020,1 hPa 0,0 l/m 0 min 0 min 0 W/m 9,7 km/h (2 Bft) 94,29 %
12.01.2019 07:32 4,9 C 4,4 C 3,9 C 99 % 1020,0 hPa 0,0 l/m 0 min 0 min 0 W/m 6,4 km/h (2 Bft) 97,87 %
12.01.2019 07:34 4,9 C 4,4 C 3,9 C 99 % 1020,0 hPa 0,0 l/m 0 min 0 min 0 W/m 3,2 km/h (1 Bft) 98,31 %
12.01.2019 07:36 4,9 C 4,4 C 3,9 C 99 % 1019,9 hPa 0,0 l/m 0 min 0 min 0 W/m 9,7 km/h (2 Bft) 97,87 %
12.01.2019 07:38 4,9 C 4,4 C 3,9 C 99 % 1019,9 hPa 0,0 l/m 0 min 0 min 0 W/m 12,9 km/h (3 Bft) 97,83 %
12.01.2019 07:40 4,9 C 4,4 C 3,9 C 99 % 1019,9 hPa 0,0 l/m 0 min 0 min 0 W/m 19,3 km/h (3 Bft) 97,22 %
12.01.2019 07:42 4,9 C 4,4 C 3,9 C 99 % 1019,8 hPa 0,0 l/m 0 min 0 min 0 W/m 9,7 km/h (2 Bft) 95,65 %
12.01.2019 07:44 4,9 C 4,4 C 3,9 C 99 % 1019,7 hPa 0,0 l/m 0 min 0 min 0 W/m 16,1 km/h (3 Bft) 97,87 %
12.01.2019 07:46 4,9 C 4,4 C 3,9 C 99 % 1019,6 hPa 0,0 l/m 0 min 0 min 0 W/m 9,7 km/h (2 Bft) 97,87 %
12.01.2019 07:48 4,9 C 4,4 C 3,9 C 99 % 1019,6 hPa 0,0 l/m 0 min 0 min 0 W/m 16,1 km/h (3 Bft) 93,22 %
12.01.2019 07:50 4,9 C 4,4 C 3,9 C 99 % 1019,6 hPa 0,0 l/m 0 min 0 min 0 W/m 3,2 km/h (1 Bft) 97,14 %
12.01.2019 07:52 4,9 C 4,4 C 3,9 C 99 % 1019,6 hPa 0,0 l/m 0 min 0 min 0 W/m 3,2 km/h (1 Bft) 97,87 %
12.01.2019 07:54 4,9 C 4,4 C 3,9 C 99 % 1019,6 hPa 0,0 l/m 0 min 0 min 0 W/m 9,7 km/h (2 Bft) 95,65 %
12.01.2019 07:56 4,9 C 4,4 C 3,9 C 99 % 1019,6 hPa 0,0 l/m 0 min 0 min 0 W/m 9,7 km/h (2 Bft) 97,87 %
12.01.2019 07:58 4,9 C 4,4 C 3,9 C 99 % 1019,5 hPa 0,0 l/m 0 min 0 min 0 W/m 6,4 km/h (2 Bft) 95,74 %
12.01.2019 08:00 4,9 C 4,4 C 3,9 C 99 % 1019,5 hPa 0,0 l/m 0 min 2 min 0 W/m 9,7 km/h (2 Bft) 97,87 %
12.01.2019 08:02 4,9 C 4,4 C 3,9 C 99 % 1019,5 hPa 0,0 l/m 0 min 2 min 0 W/m 12,9 km/h (3 Bft) 97,87 %
12.01.2019 08:04 4,9 C 4,4 C 3,9 C 99 % 1019,5 hPa 0,0 l/m 0 min 0 min 0 W/m 9,7 km/h (2 Bft) 96,55 %
12.01.2019 08:06 4,9 C 4,4 C 3,9 C 99 % 1019,5 hPa 0,0 l/m 0 min 0 min 0 W/m 9,7 km/h (2 Bft) 97,87 %
12.01.2019 08:08 4,9 C 4,4 C 3,9 C 99 % 1019,5 hPa 0,0 l/m 0 min 0 min 0 W/m 6,4 km/h (2 Bft) 95,74 %
12.01.2019 08:10 4,9 C 4,4 C 3,9 C 99 % 1019,5 hPa 0,0 l/m 0 min 0 min 0 W/m 12,9 km/h (3 Bft) 100,00 %
12.01.2019 08:12 4,9 C 4,4 C 3,9 C 99 % 1019,5 hPa 0,0 l/m 0 min 0 min 0 W/m 6,4 km/h (2 Bft) 100,00 %
12.01.2019 08:14 4,9 C 4,4 C 3,9 C 99 % 1019,4 hPa 0,0 l/m 0 min 0 min 0 W/m 9,7 km/h (2 Bft) 98,28 %
12.01.2019 08:16 4,9 C 4,4 C 3,9 C 99 % 1019,4 hPa 0,0 l/m 0 min 0 min 0 W/m 9,7 km/h (2 Bft) 97,14 %
12.01.2019 08:18 4,9 C 4,4 C 3,9 C 99 % 1019,5 hPa 0,0 l/m 0 min 0 min 0 W/m 6,4 km/h (2 Bft) 97,87 %
12.01.2019 08:20 4,9 C 4,4 C 3,9 C 99 % 1019,4 hPa 0,0 l/m 0 min 0 min 0 W/m 12,9 km/h (3 Bft) 97,87 %
12.01.2019 08:22 4,9 C 4,4 C 3,9 C 99 % 1019,4 hPa 0,0 l/m 0 min 0 min 0 W/m 9,7 km/h (2 Bft) 95,74 %
12.01.2019 08:24 4,9 C 4,4 C 3,9 C 99 % 1019,3 hPa 0,0 l/m 0 min 0 min 0 W/m 12,9 km/h (3 Bft) 96,55 %
12.01.2019 08:26 4,9 C 4,4 C 3,9 C 99 % 1019,3 hPa 0,0 l/m 0 min 0 min 0 W/m 6,4 km/h (2 Bft) 97,87 %
12.01.2019 08:28 4,9 C 4,4 C 3,9 C 99 % 1019,3 hPa 0,0 l/m 0 min 0 min 0 W/m 12,9 km/h (3 Bft) 97,87 %
12.01.2019 08:30 4,9 C 4,4 C 3,9 C 99 % 1019,2 hPa 0,0 l/m 0 min 0 min 0 W/m 6,4 km/h (2 Bft) 97,87 %
12.01.2019 08:32 4,9 C 4,4 C 3,9 C 99 % 1019,2 hPa 0,0 l/m 0 min 0 min 0 W/m 12,9 km/h (3 Bft) 95,74 %
12.01.2019 08:34 4,9 C 4,4 C 3,9 C 99 % 1019,2 hPa 0,0 l/m 0 min 0 min 0 W/m 6,4 km/h (2 Bft) 95,74 %
12.01.2019 08:36 4,9 C 4,4 C 3,9 C 99 % 1019,0 hPa 0,0 l/m 0 min 0 min 0 W/m 9,7 km/h (2 Bft) 95,65 %
12.01.2019 08:38 4,9 C 4,4 C 3,9 C 99 % 1019,0 hPa 0,0 l/m 0 min 0 min 0 W/m 9,7 km/h (2 Bft) 97,87 %
12.01.2019 08:40 4,9 C 4,4 C 3,9 C 99 % 1019,0 hPa 0,0 l/m 0 min 0 min 0 W/m 12,9 km/h (3 Bft) 100,00 %
12.01.2019 08:42 4,9 C 4,4 C 3,9 C 99 % 1019,0 hPa 0,0 l/m 0 min 0 min 0 W/m 9,7 km/h (2 Bft) 93,62 %
12.01.2019 08:44 4,9 C 4,4 C 3,9 C 99 % 1018,9 hPa 0,0 l/m 0 min 0 min 0 W/m 6,4 km/h (2 Bft) 97,87 %
12.01.2019 08:46 4,9 C 4,4 C 3,9 C 99 % 1018,9 hPa 0,0 l/m 0 min 0 min 0 W/m 16,1 km/h (3 Bft) 97,87 %
12.01.2019 08:48 4,9 C 4,4 C 3,9 C 99 % 1018,8 hPa 0,0 l/m 0 min 0 min 0 W/m 25,7 km/h (4 Bft) 95,74 %
12.01.2019 08:50 4,9 C 4,4 C 3,9 C 99 % 1018,9 hPa 0,0 l/m 0 min 0 min 0 W/m 9,7 km/h (2 Bft) 98,28 %
12.01.2019 08:52 4,9 C 4,4 C 3,9 C 99 % 1018,9 hPa 0,0 l/m 0 min 0 min 0 W/m 25,7 km/h (4 Bft) 94,29 %
12.01.2019 08:54 4,9 C 4,4 C 3,9 C 99 % 1018,8 hPa 0,0 l/m 0 min 0 min 0 W/m 9,7 km/h (2 Bft) 97,87 %
12.01.2019 08:56 4,9 C 4,4 C 3,9 C 99 % 1018,8 hPa 0,0 l/m 0 min 0 min 0 W/m 16,1 km/h (3 Bft) 96,61 %
12.01.2019 08:58 5,0 C 4,4 C 3,9 C 99 % 1018,8 hPa 0,0 l/m 0 min 0 min 0 W/m 12,9 km/h (3 Bft) 100,00 %
12.01.2019 09:00 5,0 C 4,4 C 3,9 C 99 % 1018,8 hPa 0,0 l/m 0 min 0 min 0 W/m 22,5 km/h (4 Bft) 95,74 %
12.01.2019 09:02 4,9 C 4,4 C 3,9 C 99 % 1018,8 hPa 0,0 l/m 0 min 0 min 0 W/m 9,7 km/h (2 Bft) 97,87 %
12.01.2019 09:04 5,0 C 4,4 C 3,9 C 98 % 1018,9 hPa 0,0 l/m 0 min 0 min 3 W/m 12,9 km/h (3 Bft) 100,00 %
12.01.2019 09:06 5,0 C 4,4 C 3,9 C 98 % 1018,8 hPa 0,0 l/m 0 min 0 min 5 W/m 19,3 km/h (3 Bft) 100,00 %
12.01.2019 09:08 5,0 C 4,4 C 3,9 C 98 % 1018,9 hPa 0,0 l/m 0 min 0 min 2 W/m 12,9 km/h (3 Bft) 97,87 %
12.01.2019 09:10 5,0 C 4,4 C 3,9 C 98 % 1018,8 hPa 0,0 l/m 0 min 0 min 0 W/m 6,4 km/h (2 Bft) 97,14 %
12.01.2019 09:12 5,0 C 4,4 C 3,9 C 98 % 1018,7 hPa 0,0 l/m 0 min 0 min 2 W/m 9,7 km/h (2 Bft) 97,87 %
12.01.2019 09:14 5,0 C 4,4 C 3,9 C 98 % 1018,7 hPa 0,0 l/m 0 min 0 min 3 W/m 12,9 km/h (3 Bft) 94,83 %
12.01.2019 09:16 5,1 C 4,4 C 3,9 C 98 % 1018,6 hPa 0,0 l/m 0 min 0 min 5 W/m 12,9 km/h (3 Bft) 97,87 %
12.01.2019 09:18 5,1 C 4,4 C 3,9 C 98 % 1018,7 hPa 0,0 l/m 0 min 0 min 6 W/m 9,7 km/h (2 Bft) 94,29 %
12.01.2019 09:20 5,1 C 4,4 C 3,9 C 98 % 1018,6 hPa 0,0 l/m 0 min 0 min 9 W/m 16,1 km/h (3 Bft) 98,31 %
12.01.2019 09:22 5,1 C 4,4 C 3,9 C 98 % 1018,6 hPa 0,0 l/m 0 min 0 min 11 W/m 9,7 km/h (2 Bft) 97,14 %
12.01.2019 09:24 5,1 C 4,4 C 3,9 C 98 % 1018,6 hPa 0,0 l/m 0 min 0 min 12 W/m 16,1 km/h (3 Bft) 98,28 %
12.01.2019 09:26 5,1 C 4,4 C 3,9 C 98 % 1018,6 hPa 0,0 l/m 0 min 0 min 12 W/m 12,9 km/h (3 Bft) 97,22 %
12.01.2019 09:28 5,1 C 4,4 C 3,9 C 98 % 1018,6 hPa 0,0 l/m 0 min 0 min 14 W/m 16,1 km/h (3 Bft) 98,28 %
12.01.2019 09:30 5,1 C 4,4 C 3,9 C 98 % 1018,5 hPa 0,0 l/m 0 min 0 min 14 W/m 9,7 km/h (2 Bft) 97,14 %
12.01.2019 09:32 5,1 C 4,4 C 3,9 C 98 % 1018,4 hPa 0,0 l/m 0 min 0 min 16 W/m 22,5 km/h (4 Bft) 97,87 %
12.01.2019 09:34 5,1 C 4,4 C 3,9 C 98 % 1018,5 hPa 0,0 l/m 0 min 0 min 17 W/m 16,1 km/h (3 Bft) 97,87 %
12.01.2019 09:36 5,1 C 4,4 C 3,9 C 98 % 1018,5 hPa 0,0 l/m 0 min 0 min 14 W/m 9,7 km/h (2 Bft) 96,55 %
12.01.2019 09:38 5,1 C 4,4 C 3,9 C 98 % 1018,5 hPa 0,0 l/m 0 min 0 min 14 W/m 16,1 km/h (3 Bft) 100,00 %
12.01.2019 09:40 5,1 C 4,4 C 3,9 C 98 % 1018,5 hPa 0,0 l/m 0 min 0 min 12 W/m 16,1 km/h (3 Bft) 97,87 %
12.01.2019 09:42 5,1 C 4,4 C 3,9 C 98 % 1018,6 hPa 0,0 l/m 0 min 0 min 12 W/m 9,7 km/h (2 Bft) 97,87 %
12.01.2019 09:44 5,2 C 4,4 C 3,9 C 98 % 1018,7 hPa 0,0 l/m 0 min 0 min 10 W/m 16,1 km/h (3 Bft) 93,62 %
12.01.2019 09:46 5,2 C 4,4 C 3,9 C 98 % 1018,8 hPa 0,0 l/m 0 min 0 min 10 W/m 16,1 km/h (3 Bft) 97,87 %
12.01.2019 09:48 5,2 C 4,4 C 3,9 C 97 % 1018,9 hPa 0,0 l/m 0 min 0 min 9 W/m 19,3 km/h (3 Bft) 97,87 %
12.01.2019 09:50 5,2 C 4,4 C 3,9 C 97 % 1018,7 hPa 0,0 l/m 0 min 0 min 7 W/m 16,1 km/h (3 Bft) 95,65 %
12.01.2019 09:52 5,2 C 4,4 C 3,9 C 97 % 1018,6 hPa 0,0 l/m 0 min 0 min 9 W/m 16,1 km/h (3 Bft) 97,87 %
12.01.2019 09:54 5,2 C 4,4 C 3,9 C 97 % 1018,5 hPa 0,0 l/m 0 min 0 min 13 W/m 22,5 km/h (4 Bft) 97,87 %
12.01.2019 09:56 5,2 C 4,4 C 3,9 C 97 % 1018,5 hPa 0,0 l/m 0 min 0 min 19 W/m 16,1 km/h (3 Bft) 97,87 %
12.01.2019 09:58 5,3 C 4,4 C 3,9 C 97 % 1018,5 hPa 0,2 l/m 0 min 0 min 22 W/m 19,3 km/h (3 Bft) 93,62 %
12.01.2019 10:00 5,3 C 4,4 C 3,9 C 97 % 1018,5 hPa 0,0 l/m 0 min 0 min 23 W/m 19,3 km/h (3 Bft) 100,00 %
12.01.2019 10:02 5,3 C 5,0 C 3,9 C 97 % 1018,3 hPa 0,0 l/m 0 min 0 min 18 W/m 19,3 km/h (3 Bft) 100,00 %
12.01.2019 10:04 5,3 C 4,4 C 3,9 C 97 % 1018,3 hPa 0,0 l/m 0 min 0 min 22 W/m 22,5 km/h (4 Bft) 100,00 %
12.01.2019 10:06 5,3 C 5,0 C 3,9 C 97 % 1018,2 hPa 0,0 l/m 0 min 0 min 31 W/m 22,5 km/h (4 Bft) 100,00 %
12.01.2019 10:08 5,4 C 5,0 C 4,4 C 97 % 1018,1 hPa 0,0 l/m 0 min 0 min 33 W/m 19,3 km/h (3 Bft) 100,00 %
12.01.2019 10:10 5,4 C 5,0 C 4,4 C 97 % 1018,1 hPa 0,0 l/m 0 min 0 min 41 W/m 16,1 km/h (3 Bft) 100,00 %
12.01.2019 10:12 5,4 C 5,0 C 4,4 C 96 % 1018,0 hPa 0,0 l/m 0 min 0 min 54 W/m 19,3 km/h (3 Bft) 100,00 %
12.01.2019 10:14 5,4 C 5,0 C 4,4 C 96 % 1018,0 hPa 0,0 l/m 0 min 0 min 47 W/m 29,0 km/h (5 Bft) 100,00 %
12.01.2019 10:16 5,4 C 5,0 C 4,4 C 96 % 1018,0 hPa 0,0 l/m 0 min 0 min 41 W/m 25,7 km/h (4 Bft) 100,00 %
12.01.2019 10:18 5,4 C 5,0 C 4,4 C 96 % 1018,0 hPa 0,0 l/m 0 min 0 min 45 W/m 12,9 km/h (3 Bft) 97,87 %
12.01.2019 10:20 5,5 C 5,0 C 4,4 C 96 % 1017,9 hPa 0,0 l/m 0 min 0 min 45 W/m 16,1 km/h (3 Bft) 100,00 %
12.01.2019 10:22 5,5 C 5,0 C 4,4 C 96 % 1018,1 hPa 0,0 l/m 0 min 0 min 39 W/m 19,3 km/h (3 Bft) 100,00 %
12.01.2019 10:24 5,6 C 5,0 C 4,4 C 96 % 1018,1 hPa 0,0 l/m 0 min 0 min 37 W/m 29,0 km/h (5 Bft) 100,00 %
12.01.2019 10:26 5,6 C 5,0 C 4,4 C 95 % 1018,1 hPa 0,0 l/m 0 min 0 min 37 W/m 16,1 km/h (3 Bft) 100,00 %
12.01.2019 10:28 5,6 C 5,0 C 4,4 C 95 % 1018,1 hPa 0,0 l/m 0 min 0 min 35 W/m 12,9 km/h (3 Bft) 100,00 %
12.01.2019 10:30 5,6 C 5,0 C 4,4 C 95 % 1018,0 hPa 0,0 l/m 0 min 0 min 36 W/m 16,1 km/h (3 Bft) 97,87 %
12.01.2019 10:32 5,6 C 5,0 C 4,4 C 95 % 1018,0 hPa 0,0 l/m 0 min 0 min 44 W/m 22,5 km/h (4 Bft) 95,74 %
12.01.2019 10:34 5,6 C 5,0 C 4,4 C 94 % 1017,9 hPa 0,0 l/m 0 min 0 min 49 W/m 19,3 km/h (3 Bft) 97,87 %
12.01.2019 10:36 5,7 C 5,0 C 4,4 C 95 % 1017,8 hPa 0,0 l/m 0 min 0 min 50 W/m 22,5 km/h (4 Bft) 98,28 %
12.01.2019 10:38 5,7 C 5,0 C 4,4 C 94 % 1017,8 hPa 0,0 l/m 0 min 0 min 49 W/m 16,1 km/h (3 Bft) 97,14 %
12.01.2019 10:40 5,7 C 5,0 C 4,4 C 94 % 1017,8 hPa 0,0 l/m 0 min 0 min 49 W/m 9,7 km/h (2 Bft) 97,87 %
12.01.2019 10:42 5,7 C 5,0 C 4,4 C 94 % 1017,8 hPa 0,0 l/m 0 min 0 min 47 W/m 19,3 km/h (3 Bft) 95,74 %
12.01.2019 10:44 5,7 C 5,0 C 4,4 C 94 % 1017,7 hPa 0,0 l/m 0 min 0 min 46 W/m 19,3 km/h (3 Bft) 97,87 %
12.01.2019 10:46 5,7 C 5,0 C 4,4 C 94 % 1017,6 hPa 0,0 l/m 0 min 0 min 42 W/m 19,3 km/h (3 Bft) 97,87 %
12.01.2019 10:48 5,7 C 5,0 C 4,4 C 94 % 1017,5 hPa 0,0 l/m 0 min 0 min 42 W/m 16,1 km/h (3 Bft) 97,83 %
12.01.2019 10:50 5,7 C 5,0 C 4,4 C 94 % 1017,5 hPa 0,0 l/m 0 min 0 min 40 W/m 12,9 km/h (3 Bft) 95,74 %
12.01.2019 10:52 5,8 C 5,0 C 4,4 C 94 % 1017,5 hPa 0,0 l/m 0 min 0 min 33 W/m 22,5 km/h (4 Bft) 95,74 %
12.01.2019 10:54 5,8 C 5,0 C 4,4 C 93 % 1017,5 hPa 0,0 l/m 0 min 0 min 31 W/m 22,5 km/h (4 Bft) 95,74 %
12.01.2019 10:56 5,8 C 5,0 C 4,4 C 93 % 1017,6 hPa 0,0 l/m 0 min 0 min 27 W/m 22,5 km/h (4 Bft) 95,74 %
12.01.2019 10:58 5,8 C 5,0 C 4,4 C 93 % 1017,5 hPa 0,0 l/m 0 min 0 min 26 W/m 22,5 km/h (4 Bft) 93,62 %
12.01.2019 11:00 5,8 C 5,0 C 4,4 C 93 % 1017,5 hPa 0,0 l/m 0 min 0 min 26 W/m 19,3 km/h (3 Bft) 93,48 %
12.01.2019 11:02 5,8 C 5,0 C 4,4 C 93 % 1017,4 hPa 0,0 l/m 0 min 0 min 24 W/m 12,9 km/h (3 Bft) 91,49 %
12.01.2019 11:04 5,8 C 5,6 C 4,4 C 93 % 1017,3 hPa 0,0 l/m 0 min 0 min 23 W/m 19,3 km/h (3 Bft) 95,74 %
12.01.2019 11:06 5,8 C 5,6 C 4,4 C 93 % 1017,4 hPa 0,0 l/m 0 min 0 min 26 W/m 12,9 km/h (3 Bft) 89,83 %
12.01.2019 11:08 5,8 C 5,6 C 4,4 C 92 % 1017,4 hPa 0,0 l/m 0 min 0 min 25 W/m 19,3 km/h (3 Bft) 95,65 %
12.01.2019 11:10 5,8 C 5,6 C 4,4 C 92 % 1017,2 hPa 0,0 l/m 0 min 0 min 24 W/m 25,7 km/h (4 Bft) 88,89 %
12.01.2019 11:12 5,8 C 5,6 C 4,4 C 92 % 1017,1 hPa 0,0 l/m 0 min 0 min 25 W/m 12,9 km/h (3 Bft) 93,48 %
12.01.2019 11:14 5,8 C 5,6 C 4,4 C 92 % 1017,1 hPa 0,0 l/m 0 min 0 min 21 W/m 19,3 km/h (3 Bft) 95,74 %
12.01.2019 11:16 5,8 C 5,6 C 4,4 C 92 % 1017,0 hPa 0,0 l/m 0 min 0 min 24 W/m 16,1 km/h (3 Bft) 95,74 %
12.01.2019 11:18 5,8 C 5,6 C 4,4 C 92 % 1017,2 hPa 0,0 l/m 0 min 0 min 25 W/m 19,3 km/h (3 Bft) 93,62 %
12.01.2019 11:20 5,8 C 5,6 C 4,4 C 92 % 1017,1 hPa 0,0 l/m 0 min 0 min 22 W/m 22,5 km/h (4 Bft) 95,74 %
12.01.2019 11:22 5,9 C 5,6 C 4,4 C 92 % 1017,0 hPa 0,0 l/m 0 min 0 min 19 W/m 22,5 km/h (4 Bft) 97,87 %
12.01.2019 11:24 5,9 C 5,6 C 4,4 C 92 % 1017,1 hPa 0,0 l/m 0 min 0 min 18 W/m 16,1 km/h (3 Bft) 97,83 %
12.01.2019 11:26 5,9 C 5,6 C 4,4 C 92 % 1017,1 hPa 0,0 l/m 0 min 0 min 18 W/m 16,1 km/h (3 Bft) 97,87 %
12.01.2019 11:28 5,9 C 5,6 C 4,4 C 92 % 1017,1 hPa 0,0 l/m 0 min 0 min 18 W/m 9,7 km/h (2 Bft) 95,74 %
12.01.2019 11:30 5,9 C 5,6 C 4,4 C 92 % 1017,2 hPa 0,0 l/m 0 min 0 min 21 W/m 16,1 km/h (3 Bft) 97,87 %
12.01.2019 11:32 5,8 C 5,6 C 4,4 C 92 % 1017,1 hPa 0,0 l/m 0 min 0 min 24 W/m 16,1 km/h (3 Bft) 95,74 %
12.01.2019 11:34 5,8 C 5,6 C 4,4 C 92 % 1016,9 hPa 0,0 l/m 0 min 0 min 22 W/m 19,3 km/h (3 Bft) 97,83 %
12.01.2019 11:36 5,8 C 5,6 C 4,4 C 92 % 1016,9 hPa 0,0 l/m 0 min 0 min 25 W/m 25,7 km/h (4 Bft) 98,31 %
12.01.2019 11:38 5,8 C 5,6 C 4,4 C 92 % 1016,8 hPa 0,0 l/m 0 min 0 min 26 W/m 19,3 km/h (3 Bft) 100,00 %
12.01.2019 11:40 5,8 C 5,6 C 4,4 C 92 % 1016,8 hPa 0,0 l/m 0 min 0 min 26 W/m 16,1 km/h (3 Bft) 97,14 %
12.01.2019 11:42 5,9 C 5,6 C 4,4 C 92 % 1016,7 hPa 0,0 l/m 0 min 0 min 31 W/m 16,1 km/h (3 Bft) 97,87 %
12.01.2019 11:44 5,9 C 5,6 C 4,4 C 92 % 1016,6 hPa 0,0 l/m 0 min 0 min 32 W/m 25,7 km/h (4 Bft) 95,74 %
12.01.2019 11:46 5,9 C 5,6 C 4,4 C 92 % 1016,7 hPa 0,0 l/m 0 min 0 min 31 W/m 16,1 km/h (3 Bft) 97,83 %
12.01.2019 11:48 5,9 C 5,6 C 4,4 C 92 % 1016,6 hPa 0,0 l/m 0 min 0 min 31 W/m 16,1 km/h (3 Bft) 93,62 %
12.01.2019 11:50 5,9 C 5,6 C 4,4 C 92 % 1016,6 hPa 0,0 l/m 0 min 0 min 33 W/m 16,1 km/h (3 Bft) 100,00 %
12.01.2019 11:52 5,9 C 5,6 C 4,4 C 92 % 1016,5 hPa 0,0 l/m 0 min 0 min 40 W/m 12,9 km/h (3 Bft) 93,62 %
12.01.2019 11:54 5,9 C 5,6 C 4,4 C 92 % 1016,4 hPa 0,0 l/m 0 min 0 min 38 W/m 12,9 km/h (3 Bft) 97,87 %
12.01.2019 11:56 5,9 C 5,6 C 4,4 C 92 % 1016,4 hPa 0,0 l/m 0 min 0 min 40 W/m 22,5 km/h (4 Bft) 97,87 %
12.01.2019 11:58 5,9 C 5,6 C 4,4 C 92 % 1016,5 hPa 0,0 l/m 0 min 0 min 40 W/m 22,5 km/h (4 Bft) 97,83 %
12.01.2019 12:00 5,9 C 5,6 C 4,4 C 92 % 1016,4 hPa 0,0 l/m 0 min 0 min 47 W/m 22,5 km/h (4 Bft) 100,00 %
12.01.2019 12:02 5,9 C 5,6 C 4,4 C 92 % 1016,4 hPa 0,0 l/m 0 min 0 min 45 W/m 29,0 km/h (5 Bft) 97,87 %
12.01.2019 12:04 5,9 C 5,6 C 4,4 C 92 % 1016,2 hPa 0,0 l/m 0 min 0 min 42 W/m 16,1 km/h (3 Bft) 97,87 %
12.01.2019 12:08 6,0 C 5,0 C 4,4 C 92 % 1016,3 hPa 0,0 l/m 0 min 0 min 39 W/m 19,3 km/h (3 Bft) 97,87 %
12.01.2019 12:10 6,0 C 5,0 C 4,4 C 92 % 1016,3 hPa 0,0 l/m 0 min 2 min 34 W/m 12,9 km/h (3 Bft) 97,83 %
12.01.2019 12:12 6,0 C 5,0 C 4,4 C 92 % 1016,3 hPa 0,0 l/m 0 min 2 min 32 W/m 29,0 km/h (5 Bft) 97,87 %
12.01.2019 12:14 6,0 C 5,0 C 4,4 C 92 % 1016,3 hPa 0,0 l/m 0 min 2 min 27 W/m 29,0 km/h (5 Bft) 97,87 %
12.01.2019 12:16 5,9 C 5,0 C 4,4 C 92 % 1016,3 hPa 0,0 l/m 0 min 2 min 26 W/m 12,9 km/h (3 Bft) 97,87 %
12.01.2019 12:18 5,9 C 4,4 C 4,4 C 92 % 1016,3 hPa 0,0 l/m 0 min 2 min 30 W/m 25,7 km/h (4 Bft) 95,74 %
12.01.2019 12:20 5,9 C 4,4 C 4,4 C 93 % 1016,3 hPa 0,0 l/m 0 min 2 min 32 W/m 16,1 km/h (3 Bft) 97,87 %
12.01.2019 12:22 5,9 C 4,4 C 4,4 C 93 % 1016,3 hPa 0,0 l/m 0 min 2 min 36 W/m 22,5 km/h (4 Bft) 97,83 %
12.01.2019 12:24 5,8 C 4,4 C 4,4 C 93 % 1016,2 hPa 0,0 l/m 0 min 2 min 35 W/m 16,1 km/h (3 Bft) 97,87 %
12.01.2019 12:26 5,8 C 4,4 C 4,4 C 93 % 1016,2 hPa 0,0 l/m 0 min 2 min 37 W/m 9,7 km/h (2 Bft) 95,74 %
12.01.2019 12:28 5,8 C 4,4 C 4,4 C 93 % 1016,1 hPa 0,0 l/m 0 min 2 min 50 W/m 19,3 km/h (3 Bft) 97,87 %
12.01.2019 12:30 5,8 C 5,0 C 4,4 C 93 % 1016,1 hPa 0,0 l/m 0 min 2 min 55 W/m 16,1 km/h (3 Bft) 95,74 %
12.01.2019 12:32 5,8 C 5,0 C 4,4 C 93 % 1016,0 hPa 0,0 l/m 0 min 2 min 48 W/m 22,5 km/h (4 Bft) 97,87 %
12.01.2019 12:34 5,8 C 5,0 C 4,4 C 93 % 1016,1 hPa 0,0 l/m 0 min 0 min 49 W/m 16,1 km/h (3 Bft) 97,83 %
12.01.2019 12:36 5,8 C 5,0 C 4,4 C 94 % 1015,8 hPa 0,0 l/m 0 min 0 min 54 W/m 9,7 km/h (2 Bft) 98,31 %
12.01.2019 12:38 5,8 C 5,0 C 4,4 C 94 % 1015,8 hPa 0,0 l/m 0 min 0 min 48 W/m 9,7 km/h (2 Bft) 97,62 %
12.01.2019 12:40 5,8 C 5,0 C 4,4 C 94 % 1015,8 hPa 0,0 l/m 0 min 0 min 42 W/m 16,1 km/h (3 Bft) 93,62 %
12.01.2019 12:42 5,8 C 5,0 C 4,4 C 94 % 1015,8 hPa 0,0 l/m 0 min 2 min 45 W/m 22,5 km/h (4 Bft) 97,83 %
12.01.2019 12:44 5,8 C 5,0 C 4,4 C 94 % 1015,7 hPa 0,0 l/m 0 min 2 min 53 W/m 16,1 km/h (3 Bft) 97,87 %
12.01.2019 12:46 5,8 C 5,0 C 4,4 C 94 % 1015,7 hPa 0,0 l/m 0 min 2 min 53 W/m 16,1 km/h (3 Bft) 98,00 %
12.01.2019 12:48 5,8 C 5,0 C 4,4 C 94 % 1015,7 hPa 0,0 l/m 0 min 2 min 53 W/m 9,7 km/h (2 Bft) 93,62 %
12.01.2019 12:50 5,8 C 5,0 C 4,4 C 94 % 1015,7 hPa 0,2 l/m 0 min 2 min 47 W/m 25,7 km/h (4 Bft) 97,87 %
12.01.2019 12:52 5,8 C 5,0 C 4,4 C 94 % 1015,5 hPa 0,0 l/m 0 min 2 min 42 W/m 22,5 km/h (4 Bft) 95,65 %
12.01.2019 12:54 5,8 C 5,0 C 4,4 C 94 % 1015,5 hPa 0,0 l/m 0 min 2 min 49 W/m 16,1 km/h (3 Bft) 97,87 %
12.01.2019 12:56 5,8 C 5,0 C 4,4 C 94 % 1015,4 hPa 0,0 l/m 0 min 2 min 51 W/m 22,5 km/h (4 Bft) 97,87 %
12.01.2019 12:58 5,8 C 5,0 C 4,4 C 94 % 1015,3 hPa 0,0 l/m 0 min 2 min 48 W/m 19,3 km/h (3 Bft) 100,00 %
12.01.2019 13:00 5,8 C 5,0 C 4,4 C 95 % 1015,3 hPa 0,0 l/m 0 min 2 min 47 W/m 19,3 km/h (3 Bft) 100,00 %
12.01.2019 13:02 5,8 C 5,0 C 4,4 C 95 % 1015,2 hPa 0,0 l/m 0 min 2 min 45 W/m 16,1 km/h (3 Bft) 97,87 %
12.01.2019 13:04 5,8 C 5,0 C 4,4 C 95 % 1015,1 hPa 0,0 l/m 0 min 2 min 45 W/m 25,7 km/h (4 Bft) 100,00 %
12.01.2019 13:06 5,8 C 5,0 C 4,4 C 95 % 1015,1 hPa 0,0 l/m 0 min 2 min 41 W/m 29,0 km/h (5 Bft) 100,00 %
12.01.2019 13:08 5,9 C 5,0 C 4,4 C 95 % 1015,0 hPa 0,0 l/m 0 min 2 min 35 W/m 16,1 km/h (3 Bft) 100,00 %
12.01.2019 13:10 5,8 C 5,0 C 4,4 C 95 % 1014,9 hPa 0,0 l/m 0 min 2 min 38 W/m 22,5 km/h (4 Bft) 100,00 %
12.01.2019 13:12 5,8 C 5,0 C 4,4 C 95 % 1015,0 hPa 0,0 l/m 0 min 0 min 44 W/m 22,5 km/h (4 Bft) 100,00 %
12.01.2019 13:14 5,8 C 5,0 C 4,4 C 95 % 1015,0 hPa 0,0 l/m 0 min 0 min 36 W/m 19,3 km/h (3 Bft) 100,00 %
12.01.2019 13:16 5,8 C 5,0 C 4,4 C 95 % 1014,9 hPa 0,0 l/m 0 min 0 min 34 W/m 19,3 km/h (3 Bft) 100,00 %
12.01.2019 13:18 5,8 C 5,0 C 4,4 C 95 % 1014,9 hPa 0,0 l/m 0 min 0 min 38 W/m 12,9 km/h (3 Bft) 100,00 %
12.01.2019 13:20 5,8 C 5,0 C 4,4 C 95 % 1014,8 hPa 0,0 l/m 0 min 0 min 42 W/m 19,3 km/h (3 Bft) 100,00 %
12.01.2019 13:22 5,8 C 5,0 C 4,4 C 95 % 1014,7 hPa 0,0 l/m 0 min 0 min 39 W/m 22,5 km/h (4 Bft) 97,87 %
12.01.2019 13:24 5,9 C 5,0 C 4,4 C 95 % 1014,7 hPa 0,0 l/m 0 min 0 min 39 W/m 12,9 km/h (3 Bft) 97,87 %
12.01.2019 13:26 5,9 C 5,0 C 4,4 C 95 % 1014,6 hPa 0,0 l/m 0 min 0 min 37 W/m 25,7 km/h (4 Bft) 97,83 %
12.01.2019 13:28 5,9 C 5,0 C 4,4 C 95 % 1014,6 hPa 0,0 l/m 0 min 0 min 32 W/m 16,1 km/h (3 Bft) 97,87 %
12.01.2019 13:30 5,9 C 5,0 C 4,4 C 95 % 1014,4 hPa 0,0 l/m 0 min 0 min 33 W/m 22,5 km/h (4 Bft) 97,87 %
12.01.2019 13:32 5,9 C 5,0 C 4,4 C 95 % 1014,4 hPa 0,0 l/m 0 min 0 min 37 W/m 25,7 km/h (4 Bft) 95,74 %
12.01.2019 13:34 5,9 C 5,0 C 4,4 C 95 % 1014,4 hPa 0,0 l/m 0 min 0 min 37 W/m 25,7 km/h (4 Bft) 95,74 %
12.01.2019 13:36 5,9 C 5,0 C 4,4 C 95 % 1014,3 hPa 0,0 l/m 0 min 0 min 38 W/m 22,5 km/h (4 Bft) 97,87 %
12.01.2019 13:38 5,9 C 5,0 C 4,4 C 95 % 1014,2 hPa 0,0 l/m 0 min 0 min 39 W/m 29,0 km/h (5 Bft) 97,83 %
12.01.2019 13:40 5,9 C 5,0 C 4,4 C 96 % 1014,2 hPa 0,0 l/m 0 min 0 min 28 W/m 12,9 km/h (3 Bft) 97,87 %
12.01.2019 13:42 5,9 C 5,0 C 4,4 C 96 % 1014,2 hPa 0,0 l/m 0 min 2 min 31 W/m 19,3 km/h (3 Bft) 95,74 %
12.01.2019 13:44 5,9 C 5,0 C 4,4 C 96 % 1014,2 hPa 0,0 l/m 0 min 2 min 32 W/m 32,2 km/h (5 Bft) 95,74 %
12.01.2019 13:46 5,9 C 5,0 C 4,4 C 96 % 1014,1 hPa 0,0 l/m 0 min 0 min 29 W/m 32,2 km/h (5 Bft) 95,74 %
12.01.2019 13:48 5,9 C 5,0 C 4,4 C 96 % 1014,0 hPa 0,0 l/m 0 min 0 min 26 W/m 19,3 km/h (3 Bft) 95,74 %
12.01.2019 13:50 5,9 C 5,0 C 4,4 C 96 % 1014,0 hPa 0,0 l/m 0 min 2 min 30 W/m 19,3 km/h (3 Bft) 93,48 %
12.01.2019 13:52 5,9 C 5,0 C 4,4 C 96 % 1014,0 hPa 0,0 l/m 0 min 2 min 32 W/m 16,1 km/h (3 Bft) 93,62 %
12.01.2019 13:54 5,9 C 5,0 C 4,4 C 96 % 1013,9 hPa 0,0 l/m 0 min 2 min 28 W/m 22,5 km/h (4 Bft) 95,74 %
12.01.2019 13:56 5,9 C 5,0 C 4,4 C 96 % 1013,9 hPa 0,0 l/m 0 min 2 min 27 W/m 22,5 km/h (4 Bft) 93,62 %
12.01.2019 13:58 5,9 C 5,0 C 4,4 C 96 % 1013,9 hPa 0,0 l/m 0 min 2 min 28 W/m 19,3 km/h (3 Bft) 95,74 %
12.01.2019 14:00 5,9 C 5,0 C 4,4 C 96 % 1013,8 hPa 0,0 l/m 0 min 2 min 36 W/m 16,1 km/h (3 Bft) 95,74 %
12.01.2019 14:02 6,0 C 5,0 C 4,4 C 96 % 1013,7 hPa 0,0 l/m 0 min 2 min 35 W/m 32,2 km/h (5 Bft) 95,65 %
12.01.2019 14:04 6,0 C 5,0 C 4,4 C 96 % 1013,7 hPa 0,0 l/m 0 min 2 min 32 W/m 19,3 km/h (3 Bft) 93,62 %
12.01.2019 14:06 6,0 C 5,0 C 4,4 C 96 % 1013,7 hPa 0,0 l/m 0 min 2 min 31 W/m 16,1 km/h (3 Bft) 95,74 %
12.01.2019 14:08 6,0 C 5,0 C 4,4 C 96 % 1013,7 hPa 0,0 l/m 0 min 2 min 32 W/m 22,5 km/h (4 Bft) 97,87 %
12.01.2019 14:10 6,0 C 5,0 C 4,4 C 96 % 1013,7 hPa 0,0 l/m 0 min 2 min 29 W/m 16,1 km/h (3 Bft) 97,87 %
12.01.2019 14:12 6,0 C 5,0 C 4,4 C 96 % 1013,7 hPa 0,0 l/m 0 min 2 min 25 W/m 35,4 km/h (5 Bft) 97,87 %
12.01.2019 14:14 6,0 C 5,0 C 4,4 C 96 % 1013,5 hPa 0,0 l/m 0 min 0 min 26 W/m 25,7 km/h (4 Bft) 95,65 %
12.01.2019 14:16 6,1 C 5,0 C 4,4 C 96 % 1013,5 hPa 0,0 l/m 0 min 2 min 25 W/m 16,1 km/h (3 Bft) 97,87 %
12.01.2019 14:18 6,1 C 5,0 C 4,4 C 96 % 1013,5 hPa 0,0 l/m 0 min 2 min 26 W/m 19,3 km/h (3 Bft) 95,74 %
12.01.2019 14:20 6,1 C 5,0 C 4,4 C 96 % 1013,4 hPa 0,0 l/m 0 min 2 min 26 W/m 22,5 km/h (4 Bft) 97,87 %
12.01.2019 14:22 6,1 C 5,0 C 4,4 C 96 % 1013,5 hPa 0,0 l/m 0 min 2 min 24 W/m 19,3 km/h (3 Bft) 97,87 %
12.01.2019 14:24 6,1 C 5,0 C 5,0 C 96 % 1013,4 hPa 0,2 l/m 0 min 0 min 31 W/m 19,3 km/h (3 Bft) 89,36 %
12.01.2019 14:26 6,1 C 5,0 C 5,0 C 96 % 1013,3 hPa 0,0 l/m 0 min 0 min 31 W/m 16,1 km/h (3 Bft) 97,83 %
12.01.2019 14:28 6,1 C 5,0 C 5,0 C 96 % 1013,3 hPa 0,0 l/m 0 min 0 min 29 W/m 22,5 km/h (4 Bft) 93,62 %
12.01.2019 14:30 6,1 C 5,0 C 5,0 C 96 % 1013,2 hPa 0,0 l/m 0 min 2 min 27 W/m 22,5 km/h (4 Bft) 97,87 %
12.01.2019 14:32 6,1 C 5,0 C 5,0 C 96 % 1013,3 hPa 0,0 l/m 0 min 0 min 28 W/m 19,3 km/h (3 Bft) 97,87 %
12.01.2019 14:34 6,1 C 5,0 C 5,0 C 97 % 1013,3 hPa 0,0 l/m 0 min 0 min 22 W/m 19,3 km/h (3 Bft) 97,87 %
12.01.2019 14:36 6,1 C 5,0 C 5,0 C 97 % 1013,3 hPa 0,0 l/m 0 min 0 min 14 W/m 16,1 km/h (3 Bft) 100,00 %
12.01.2019 14:38 6,1 C 5,0 C 5,0 C 97 % 1013,4 hPa 0,0 l/m 0 min 0 min 13 W/m 25,7 km/h (4 Bft) 100,00 %
12.01.2019 14:40 6,1 C 5,6 C 5,0 C 97 % 1013,3 hPa 0,0 l/m 0 min 2 min 21 W/m 22,5 km/h (4 Bft) 100,00 %
12.01.2019 14:42 6,1 C 5,6 C 5,0 C 97 % 1013,1 hPa 0,0 l/m 0 min 0 min 26 W/m 16,1 km/h (3 Bft) 97,87 %
12.01.2019 14:44 6,2 C 5,6 C 5,0 C 97 % 1013,1 hPa 0,0 l/m 0 min 0 min 24 W/m 19,3 km/h (3 Bft) 100,00 %
12.01.2019 14:46 6,2 C 5,6 C 5,0 C 97 % 1013,1 hPa 0,0 l/m 0 min 0 min 19 W/m 32,2 km/h (5 Bft) 100,00 %
12.01.2019 14:48 6,2 C 5,6 C 5,0 C 97 % 1013,1 hPa 0,0 l/m 0 min 2 min 18 W/m 16,1 km/h (3 Bft) 100,00 %
12.01.2019 14:50 6,2 C 5,6 C 5,0 C 97 % 1013,1 hPa 0,0 l/m 0 min 2 min 20 W/m 12,9 km/h (3 Bft) 97,87 %
12.01.2019 14:52 6,2 C 5,6 C 5,0 C 97 % 1013,1 hPa 0,0 l/m 0 min 0 min 20 W/m 12,9 km/h (3 Bft) 95,74 %
12.01.2019 14:54 6,2 C 5,6 C 5,0 C 97 % 1013,0 hPa 0,0 l/m 0 min 0 min 23 W/m 25,7 km/h (4 Bft) 100,00 %
12.01.2019 14:56 6,2 C 5,6 C 5,0 C 97 % 1013,0 hPa 0,2 l/m 0 min 0 min 27 W/m 19,3 km/h (3 Bft) 97,87 %
12.01.2019 14:58 6,2 C 5,6 C 5,0 C 97 % 1013,0 hPa 0,0 l/m 0 min 0 min 26 W/m 16,1 km/h (3 Bft) 97,87 %
12.01.2019 15:00 6,2 C 5,6 C 5,0 C 97 % 1013,0 hPa 0,0 l/m 0 min 2 min 29 W/m 19,3 km/h (3 Bft) 91,30 %
12.01.2019 15:02 6,2 C 5,6 C 5,0 C 97 % 1012,9 hPa 0,0 l/m 0 min 2 min 34 W/m 12,9 km/h (3 Bft) 97,87 %
12.01.2019 15:04 6,2 C 5,6 C 5,0 C 97 % 1012,9 hPa 0,0 l/m 0 min 2 min 22 W/m 12,9 km/h (3 Bft) 95,74 %
12.01.2019 15:06 6,2 C 5,6 C 5,0 C 97 % 1012,9 hPa 0,0 l/m 0 min 0 min 18 W/m 12,9 km/h (3 Bft) 100,00 %
12.01.2019 15:08 6,2 C 5,6 C 5,0 C 97 % 1012,9 hPa 0,0 l/m 0 min 2 min 16 W/m 12,9 km/h (3 Bft) 100,00 %
12.01.2019 15:10 6,2 C 5,6 C 5,0 C 97 % 1012,9 hPa 0,0 l/m 0 min 2 min 13 W/m 12,9 km/h (3 Bft) 95,74 %
12.01.2019 15:12 6,2 C 5,6 C 5,0 C 97 % 1012,9 hPa 0,0 l/m 0 min 2 min 16 W/m 9,7 km/h (2 Bft) 95,65 %
12.01.2019 15:14 6,3 C 5,6 C 5,0 C 97 % 1012,9 hPa 0,0 l/m 0 min 2 min 18 W/m 16,1 km/h (3 Bft) 95,74 %
12.01.2019 15:16 6,3 C 5,6 C 5,0 C 97 % 1012,8 hPa 0,0 l/m 0 min 2 min 21 W/m 19,3 km/h (3 Bft) 97,87 %
12.01.2019 15:18 6,3 C 5,6 C 5,0 C 97 % 1012,8 hPa 0,0 l/m 0 min 2 min 33 W/m 16,1 km/h (3 Bft) 97,87 %
12.01.2019 15:20 6,3 C 5,6 C 5,0 C 97 % 1012,8 hPa 0,0 l/m 0 min 2 min 27 W/m 19,3 km/h (3 Bft) 95,74 %
12.01.2019 15:22 6,3 C 5,6 C 5,0 C 97 % 1012,7 hPa 0,0 l/m 0 min 0 min 25 W/m 22,5 km/h (4 Bft) 97,87 %
12.01.2019 15:24 6,3 C 5,6 C 5,0 C 97 % 1012,7 hPa 0,0 l/m 0 min 2 min 28 W/m 12,9 km/h (3 Bft) 95,65 %
12.01.2019 15:26 6,3 C 5,6 C 5,0 C 97 % 1012,6 hPa 0,0 l/m 0 min 2 min 37 W/m 16,1 km/h (3 Bft) 97,87 %
12.01.2019 15:28 6,4 C 5,6 C 5,0 C 97 % 1012,6 hPa 0,2 l/m 0 min 2 min 37 W/m 12,9 km/h (3 Bft) 95,74 %
12.01.2019 15:30 6,4 C 5,6 C 5,0 C 97 % 1012,6 hPa 0,0 l/m 0 min 2 min 27 W/m 16,1 km/h (3 Bft) 97,87 %
12.01.2019 15:32 6,4 C 5,6 C 5,0 C 98 % 1012,7 hPa 0,0 l/m 0 min 2 min 28 W/m 25,7 km/h (4 Bft) 97,87 %
12.01.2019 15:34 6,4 C 5,6 C 5,0 C 98 % 1012,5 hPa 0,0 l/m 0 min 2 min 21 W/m 16,1 km/h (3 Bft) 97,87 %
12.01.2019 15:36 6,4 C 5,6 C 5,0 C 98 % 1012,5 hPa 0,0 l/m 0 min 2 min 15 W/m 12,9 km/h (3 Bft) 97,83 %
12.01.2019 15:38 6,4 C 5,6 C 5,0 C 98 % 1012,5 hPa 0,0 l/m 0 min 2 min 14 W/m 16,1 km/h (3 Bft) 97,87 %
12.01.2019 15:40 6,4 C 5,6 C 5,0 C 98 % 1012,4 hPa 0,0 l/m 0 min 2 min 18 W/m 9,7 km/h (2 Bft) 97,87 %
12.01.2019 15:42 6,4 C 5,6 C 5,0 C 98 % 1012,4 hPa 0,0 l/m 0 min 0 min 16 W/m 22,5 km/h (4 Bft) 95,74 %
12.01.2019 15:44 6,4 C 5,6 C 5,0 C 98 % 1012,3 hPa 0,0 l/m 0 min 0 min 15 W/m 19,3 km/h (3 Bft) 95,74 %
12.01.2019 15:46 6,4 C 5,6 C 5,0 C 98 % 1012,3 hPa 0,0 l/m 0 min 2 min 17 W/m 16,1 km/h (3 Bft) 97,87 %
12.01.2019 15:48 6,5 C 5,6 C 5,0 C 98 % 1012,3 hPa 0,0 l/m 0 min 2 min 12 W/m 19,3 km/h (3 Bft) 97,83 %
12.01.2019 15:50 6,5 C 5,6 C 5,0 C 98 % 1012,3 hPa 0,0 l/m 0 min 2 min 5 W/m 16,1 km/h (3 Bft) 97,87 %
12.01.2019 15:52 6,5 C 5,6 C 5,0 C 98 % 1012,3 hPa 0,0 l/m 0 min 0 min 5 W/m 9,7 km/h (2 Bft) 95,74 %
12.01.2019 15:54 6,5 C 5,6 C 5,0 C 98 % 1012,4 hPa 0,0 l/m 0 min 2 min 5 W/m 16,1 km/h (3 Bft) 95,74 %
12.01.2019 15:56 6,5 C 5,6 C 5,0 C 98 % 1012,4 hPa 0,2 l/m 0 min 2 min 5 W/m 19,3 km/h (3 Bft) 93,62 %
12.01.2019 15:58 6,5 C 5,6 C 5,0 C 98 % 1012,4 hPa 0,0 l/m 0 min 0 min 6 W/m 12,9 km/h (3 Bft) 95,65 %
12.01.2019 16:00 6,5 C 5,6 C 5,0 C 98 % 1012,4 hPa 0,0 l/m 0 min 0 min 8 W/m 16,1 km/h (3 Bft) 95,74 %
12.01.2019 16:02 6,5 C 5,6 C 5,0 C 98 % 1012,4 hPa 0,0 l/m 0 min 0 min 10 W/m 16,1 km/h (3 Bft) 95,74 %
12.01.2019 16:04 6,6 C 5,6 C 5,0 C 98 % 1012,4 hPa 0,0 l/m 0 min 2 min 10 W/m 16,1 km/h (3 Bft) 95,74 %
12.01.2019 16:06 6,6 C 5,6 C 5,0 C 98 % 1012,5 hPa 0,0 l/m 0 min 2 min 8 W/m 12,9 km/h (3 Bft) 97,87 %
12.01.2019 16:08 6,6 C 5,6 C 5,0 C 98 % 1012,4 hPa 0,0 l/m 0 min 2 min 8 W/m 19,3 km/h (3 Bft) 95,74 %
12.01.2019 16:10 6,6 C 5,6 C 5,0 C 98 % 1012,4 hPa 0,0 l/m 0 min 2 min 8 W/m 12,9 km/h (3 Bft) 97,83 %
12.01.2019 16:12 6,6 C 5,6 C 5,0 C 98 % 1012,4 hPa 0,0 l/m 0 min 2 min 7 W/m 9,7 km/h (2 Bft) 97,87 %
12.01.2019 16:14 6,6 C 5,6 C 5,0 C 98 % 1012,4 hPa 0,0 l/m 0 min 2 min 6 W/m 12,9 km/h (3 Bft) 97,87 %
12.01.2019 16:16 6,6 C 5,6 C 5,0 C 98 % 1012,4 hPa 0,0 l/m 0 min 2 min 5 W/m 9,7 km/h (2 Bft) 97,87 %
12.01.2019 16:18 6,6 C 5,6 C 5,0 C 98 % 1012,4 hPa 0,0 l/m 0 min 2 min 1 W/m 12,9 km/h (3 Bft) 97,87 %
12.01.2019 16:20 6,6 C 5,6 C 5,6 C 98 % 1012,4 hPa 0,0 l/m 0 min 2 min 0 W/m 16,1 km/h (3 Bft) 97,87 %
12.01.2019 16:22 6,6 C 5,6 C 5,0 C 98 % 1012,4 hPa 0,0 l/m 0 min 0 min 0 W/m 16,1 km/h (3 Bft) 97,83 %
12.01.2019 16:24 6,6 C 5,6 C 5,6 C 98 % 1012,4 hPa 0,0 l/m 0 min 0 min 4 W/m 12,9 km/h (3 Bft) 97,87 %
12.01.2019 16:26 6,6 C 6,1 C 5,6 C 98 % 1012,4 hPa 0,2 l/m 0 min 0 min 1 W/m 22,5 km/h (4 Bft) 95,74 %
12.01.2019 16:28 6,6 C 6,1 C 5,6 C 98 % 1012,4 hPa 0,0 l/m 0 min 0 min 0 W/m 16,1 km/h (3 Bft) 97,87 %
12.01.2019 16:30 6,6 C 6,1 C 5,6 C 98 % 1012,3 hPa 0,0 l/m 0 min 0 min 0 W/m 9,7 km/h (2 Bft) 97,87 %
12.01.2019 16:32 6,6 C 6,1 C 5,6 C 98 % 1012,4 hPa 0,0 l/m 0 min 0 min 0 W/m 12,9 km/h (3 Bft) 100,00 %
12.01.2019 16:34 6,6 C 6,1 C 5,6 C 98 % 1012,4 hPa 0,0 l/m 0 min 0 min 0 W/m 16,1 km/h (3 Bft) 100,00 %
12.01.2019 16:36 6,7 C 6,1 C 5,6 C 98 % 1012,3 hPa 0,0 l/m 0 min 2 min 0 W/m 19,3 km/h (3 Bft) 100,00 %
12.01.2019 16:38 6,7 C 6,1 C 5,6 C 98 % 1012,3 hPa 0,0 l/m 0 min 2 min 0 W/m 12,9 km/h (3 Bft) 93,62 %
12.01.2019 16:40 6,7 C 6,1 C 5,6 C 98 % 1012,3 hPa 0,0 l/m 0 min 2 min 0 W/m 16,1 km/h (3 Bft) 97,87 %
12.01.2019 16:42 6,7 C 6,1 C 5,6 C 98 % 1012,3 hPa 0,2 l/m 0 min 2 min 0 W/m 12,9 km/h (3 Bft) 100,00 %
12.01.2019 16:44 6,7 C 6,1 C 5,6 C 98 % 1012,3 hPa 0,0 l/m 0 min 2 min 0 W/m 16,1 km/h (3 Bft) 100,00 %
12.01.2019 16:46 6,7 C 6,1 C 5,6 C 98 % 1012,3 hPa 0,0 l/m 0 min 2 min 0 W/m 9,7 km/h (2 Bft) 97,83 %
12.01.2019 16:48 6,7 C 6,1 C 5,6 C 98 % 1012,3 hPa 0,2 l/m 0 min 2 min 0 W/m 12,9 km/h (3 Bft) 100,00 %
12.01.2019 16:50 6,7 C 6,1 C 5,6 C 98 % 1012,3 hPa 0,0 l/m 0 min 2 min 0 W/m 9,7 km/h (2 Bft) 97,87 %
12.01.2019 16:52 6,7 C 6,1 C 5,6 C 98 % 1012,2 hPa 0,0 l/m 0 min 0 min 0 W/m 9,7 km/h (2 Bft) 97,87 %
12.01.2019 16:54 6,7 C 6,1 C 5,6 C 98 % 1012,2 hPa 0,0 l/m 0 min 2 min 0 W/m 16,1 km/h (3 Bft) 97,87 %
12.01.2019 16:56 6,7 C 6,1 C 5,6 C 98 % 1012,2 hPa 0,0 l/m 0 min 2 min 0 W/m 9,7 km/h (2 Bft) 97,83 %
12.01.2019 16:58 6,7 C 6,1 C 5,6 C 98 % 1012,2 hPa 0,0 l/m 0 min 2 min 0 W/m 12,9 km/h (3 Bft) 93,62 %
12.01.2019 17:00 6,7 C 6,1 C 5,6 C 98 % 1012,2 hPa 0,0 l/m 0 min 2 min 0 W/m 12,9 km/h (3 Bft) 97,87 %
12.01.2019 17:02 6,7 C 6,1 C 5,6 C 98 % 1012,2 hPa 0,2 l/m 0 min 2 min 0 W/m 12,9 km/h (3 Bft) 95,74 %
12.01.2019 17:04 6,7 C 6,1 C 5,6 C 98 % 1012,1 hPa 0,0 l/m 0 min 2 min 0 W/m 9,7 km/h (2 Bft) 97,87 %
12.01.2019 17:06 6,7 C 6,1 C 5,6 C 98 % 1012,1 hPa 0,0 l/m 0 min 2 min 0 W/m 19,3 km/h (3 Bft) 97,87 %
12.01.2019 17:08 6,7 C 6,1 C 5,6 C 98 % 1012,1 hPa 0,0 l/m 0 min 2 min 0 W/m 6,4 km/h (2 Bft) 97,83 %
12.01.2019 17:10 6,8 C 6,1 C 5,6 C 98 % 1012,1 hPa 0,0 l/m 0 min 2 min 0 W/m 9,7 km/h (2 Bft) 97,87 %
12.01.2019 17:12 6,7 C 6,1 C 5,6 C 98 % 1012,1 hPa 0,0 l/m 0 min 2 min 0 W/m 16,1 km/h (3 Bft) 97,87 %
12.01.2019 17:14 6,8 C 6,1 C 5,6 C 98 % 1012,1 hPa 0,2 l/m 0 min 2 min 0 W/m 19,3 km/h (3 Bft) 97,87 %
12.01.2019 17:16 6,8 C 6,1 C 5,6 C 98 % 1012,0 hPa 0,0 l/m 0 min 2 min 0 W/m 16,1 km/h (3 Bft) 97,87 %
12.01.2019 17:18 6,8 C 6,1 C 5,6 C 98 % 1012,0 hPa 0,0 l/m 0 min 2 min 0 W/m 12,9 km/h (3 Bft) 97,87 %
12.01.2019 17:20 6,8 C 6,1 C 5,6 C 98 % 1012,0 hPa 0,0 l/m 0 min 0 min 0 W/m 12,9 km/h (3 Bft) 97,83 %
12.01.2019 17:22 6,8 C 6,1 C 5,6 C 98 % 1012,0 hPa 0,0 l/m 0 min 2 min 0 W/m 19,3 km/h (3 Bft) 97,87 %
12.01.2019 17:24 6,8 C 6,1 C 5,6 C 98 % 1011,9 hPa 0,0 l/m 0 min 2 min 0 W/m 12,9 km/h (3 Bft) 97,87 %
12.01.2019 17:26 6,8 C 6,1 C 5,6 C 98 % 1011,9 hPa 0,0 l/m 0 min 0 min 0 W/m 12,9 km/h (3 Bft) 95,74 %
12.01.2019 17:28 6,8 C 6,1 C 5,6 C 98 % 1011,9 hPa 0,0 l/m 0 min 0 min 0 W/m 9,7 km/h (2 Bft) 97,87 %
12.01.2019 17:30 6,8 C 6,1 C 5,6 C 98 % 1012,0 hPa 0,0 l/m 0 min 0 min 0 W/m 22,5 km/h (4 Bft) 95,74 %
12.01.2019 17:32 6,8 C 6,1 C 5,6 C 98 % 1011,9 hPa 0,0 l/m 0 min 0 min 0 W/m 22,5 km/h (4 Bft) 97,83 %
12.01.2019 17:34 6,7 C 6,1 C 5,6 C 98 % 1011,9 hPa 0,0 l/m 0 min 0 min 0 W/m 12,9 km/h (3 Bft) 95,74 %
12.01.2019 17:36 6,7 C 6,1 C 5,6 C 98 % 1012,0 hPa 0,0 l/m 0 min 0 min 0 W/m 19,3 km/h (3 Bft) 95,74 %
12.01.2019 17:38 6,7 C 6,1 C 5,6 C 98 % 1012,0 hPa 0,0 l/m 0 min 0 min 0 W/m 16,1 km/h (3 Bft) 97,87 %
12.01.2019 17:40 6,7 C 6,1 C 5,6 C 98 % 1011,9 hPa 0,0 l/m 0 min 0 min 0 W/m 12,9 km/h (3 Bft) 97,87 %
12.01.2019 17:42 6,7 C 6,1 C 5,6 C 98 % 1011,8 hPa 0,0 l/m 0 min 0 min 0 W/m 19,3 km/h (3 Bft) 97,87 %
12.01.2019 17:44 6,7 C 6,1 C 5,6 C 98 % 1011,8 hPa 0,0 l/m 0 min 0 min 0 W/m 12,9 km/h (3 Bft) 100,00 %
12.01.2019 17:46 6,7 C 6,1 C 5,6 C 98 % 1011,8 hPa 0,0 l/m 0 min 0 min 0 W/m 12,9 km/h (3 Bft) 97,87 %
12.01.2019 17:48 6,7 C 6,1 C 5,6 C 98 % 1011,8 hPa 0,0 l/m 0 min 0 min 0 W/m 9,7 km/h (2 Bft) 100,00 %
12.01.2019 17:50 6,7 C 6,1 C 5,6 C 98 % 1011,8 hPa 0,0 l/m 0 min 0 min 0 W/m 9,7 km/h (2 Bft) 100,00 %
12.01.2019 17:52 6,7 C 6,1 C 5,6 C 98 % 1011,9 hPa 0,0 l/m 0 min 0 min 0 W/m 9,7 km/h (2 Bft) 100,00 %
12.01.2019 17:54 6,7 C 6,1 C 5,6 C 98 % 1011,9 hPa 0,0 l/m 0 min 0 min 0 W/m 6,4 km/h (2 Bft) 100,00 %
12.01.2019 17:56 6,7 C 6,1 C 5,6 C 98 % 1011,9 hPa 0,0 l/m 0 min 0 min 0 W/m 9,7 km/h (2 Bft) 97,83 %
12.01.2019 17:58 6,7 C 6,1 C 5,6 C 98 % 1011,9 hPa 0,0 l/m 0 min 0 min 0 W/m 16,1 km/h (3 Bft) 100,00 %
12.01.2019 18:00 6,7 C 6,1 C 5,6 C 98 % 1011,9 hPa 0,0 l/m 0 min 0 min 0 W/m 12,9 km/h (3 Bft) 100,00 %
12.01.2019 18:02 6,7 C 6,1 C 5,6 C 98 % 1011,9 hPa 0,0 l/m 0 min 0 min 0 W/m 9,7 km/h (2 Bft) 100,00 %
12.01.2019 18:04 6,7 C 6,1 C 5,6 C 98 % 1011,8 hPa 0,0 l/m 0 min 0 min 0 W/m 12,9 km/h (3 Bft) 97,87 %
12.01.2019 18:08 6,7 C 6,1 C 5,6 C 98 % 1011,6 hPa 0,0 l/m 0 min 0 min 0 W/m 12,9 km/h (3 Bft) 100,00 %
12.01.2019 18:10 6,7 C 6,1 C 5,6 C 98 % 1011,5 hPa 0,0 l/m 0 min 0 min 0 W/m 9,7 km/h (2 Bft) 100,00 %
12.01.2019 18:12 6,7 C 6,1 C 5,6 C 98 % 1011,6 hPa 0,0 l/m 0 min 2 min 0 W/m 6,4 km/h (2 Bft) 100,00 %
12.01.2019 18:14 6,7 C 6,1 C 5,6 C 98 % 1011,7 hPa 0,0 l/m 0 min 2 min 0 W/m 22,5 km/h (4 Bft) 93,62 %
12.01.2019 18:16 6,7 C 6,1 C 5,6 C 98 % 1011,7 hPa 0,2 l/m 0 min 2 min 0 W/m 12,9 km/h (3 Bft) 97,87 %
12.01.2019 18:18 6,7 C 6,1 C 5,6 C 98 % 1011,6 hPa 0,0 l/m 0 min 2 min 0 W/m 19,3 km/h (3 Bft) 100,00 %
12.01.2019 18:20 6,7 C 6,1 C 5,6 C 98 % 1011,6 hPa 0,0 l/m 0 min 0 min 0 W/m 16,1 km/h (3 Bft) 95,74 %
12.01.2019 18:22 6,7 C 6,1 C 5,0 C 98 % 1011,6 hPa 0,0 l/m 0 min 0 min 0 W/m 16,1 km/h (3 Bft) 95,74 %
12.01.2019 18:24 6,7 C 6,1 C 5,0 C 98 % 1011,5 hPa 0,0 l/m 0 min 2 min 0 W/m 16,1 km/h (3 Bft) 95,74 %
12.01.2019 18:26 6,7 C 6,1 C 5,6 C 98 % 1011,5 hPa 0,0 l/m 0 min 2 min 0 W/m 22,5 km/h (4 Bft) 93,62 %
12.01.2019 18:28 6,7 C 6,1 C 5,0 C 98 % 1011,6 hPa 0,0 l/m 0 min 2 min 0 W/m 19,3 km/h (3 Bft) 93,62 %
12.01.2019 18:30 6,7 C 6,1 C 5,6 C 98 % 1011,5 hPa 0,0 l/m 0 min 2 min 0 W/m 16,1 km/h (3 Bft) 95,65 %
12.01.2019 18:32 6,7 C 6,1 C 5,6 C 98 % 1011,6 hPa 0,0 l/m 0 min 2 min 0 W/m 12,9 km/h (3 Bft) 95,74 %
12.01.2019 18:34 6,7 C 6,1 C 5,6 C 98 % 1011,6 hPa 0,0 l/m 0 min 2 min 0 W/m 16,1 km/h (3 Bft) 95,74 %
12.01.2019 18:36 6,7 C 6,1 C 5,6 C 98 % 1011,4 hPa 0,0 l/m 0 min 2 min 0 W/m 16,1 km/h (3 Bft) 95,74 %
12.01.2019 18:38 6,7 C 6,1 C 5,6 C 98 % 1011,4 hPa 0,0 l/m 0 min 2 min 0 W/m 12,9 km/h (3 Bft) 95,74 %
12.01.2019 18:40 6,7 C 6,1 C 5,6 C 98 % 1011,4 hPa 0,2 l/m 0 min 2 min 0 W/m 16,1 km/h (3 Bft) 95,74 %
12.01.2019 18:42 6,7 C 6,1 C 5,6 C 98 % 1011,4 hPa 0,0 l/m 0 min 0 min 0 W/m 16,1 km/h (3 Bft) 93,48 %
12.01.2019 18:44 6,7 C 6,1 C 5,6 C 98 % 1011,4 hPa 0,0 l/m 0 min 0 min 0 W/m 12,9 km/h (3 Bft) 93,62 %
12.01.2019 18:46 6,7 C 6,1 C 5,6 C 98 % 1011,4 hPa 0,0 l/m 0 min 0 min 0 W/m 16,1 km/h (3 Bft) 95,74 %
12.01.2019 18:48 6,7 C 6,1 C 5,0 C 98 % 1011,4 hPa 0,0 l/m 0 min 0 min 0 W/m 16,1 km/h (3 Bft) 95,74 %
12.01.2019 18:50 6,7 C 5,6 C 5,0 C 98 % 1011,5 hPa 0,0 l/m 0 min 0 min 0 W/m 22,5 km/h (4 Bft) 95,74 %
12.01.2019 18:52 6,6 C 5,6 C 5,0 C 98 % 1011,5 hPa 0,0 l/m 0 min 0 min 0 W/m 19,3 km/h (3 Bft) 95,74 %
12.01.2019 18:54 6,6 C 5,6 C 5,0 C 98 % 1011,4 hPa 0,0 l/m 0 min 0 min 0 W/m 25,7 km/h (4 Bft) 95,65 %
12.01.2019 18:56 6,6 C 5,6 C 5,0 C 98 % 1011,5 hPa 0,0 l/m 0 min 0 min 0 W/m 32,2 km/h (5 Bft) 93,62 %
12.01.2019 18:58 6,6 C 5,6 C 5,0 C 98 % 1011,5 hPa 0,0 l/m 0 min 0 min 0 W/m 16,1 km/h (3 Bft) 91,49 %
12.01.2019 19:00 6,6 C 5,6 C 5,0 C 98 % 1011,5 hPa 0,0 l/m 0 min 0 min 0 W/m 22,5 km/h (4 Bft) 91,49 %
12.01.2019 19:02 6,5 C 5,6 C 5,0 C 98 % 1011,6 hPa 0,0 l/m 0 min 0 min 0 W/m 12,9 km/h (3 Bft) 91,49 %
12.01.2019 19:04 6,5 C 5,6 C 5,0 C 98 % 1011,5 hPa 0,0 l/m 0 min 0 min 0 W/m 16,1 km/h (3 Bft) 97,87 %
12.01.2019 19:06 6,5 C 5,6 C 5,0 C 98 % 1011,5 hPa 0,0 l/m 0 min 2 min 0 W/m 16,1 km/h (3 Bft) 97,83 %
12.01.2019 19:08 6,5 C 5,6 C 5,0 C 98 % 1011,6 hPa 0,0 l/m 0 min 0 min 0 W/m 16,1 km/h (3 Bft) 97,87 %
12.01.2019 19:10 6,5 C 5,6 C 5,0 C 98 % 1011,6 hPa 0,0 l/m 0 min 0 min 0 W/m 16,1 km/h (3 Bft) 100,00 %
12.01.2019 19:12 6,5 C 5,6 C 5,0 C 98 % 1011,7 hPa 0,0 l/m 0 min 0 min 0 W/m 12,9 km/h (3 Bft) 97,87 %
12.01.2019 19:14 6,5 C 5,6 C 5,0 C 98 % 1011,7 hPa 0,0 l/m 0 min 2 min 0 W/m 19,3 km/h (3 Bft) 100,00 %
12.01.2019 19:16 6,5 C 5,6 C 5,0 C 98 % 1011,8 hPa 0,0 l/m 0 min 2 min 0 W/m 12,9 km/h (3 Bft) 100,00 %
12.01.2019 19:18 6,5 C 5,6 C 5,0 C 98 % 1011,8 hPa 0,0 l/m 0 min 2 min 0 W/m 12,9 km/h (3 Bft) 97,87 %
12.01.2019 19:20 6,4 C 5,6 C 5,0 C 98 % 1011,8 hPa 0,0 l/m 0 min 0 min 0 W/m 12,9 km/h (3 Bft) 100,00 %
12.01.2019 19:22 6,4 C 5,6 C 5,0 C 98 % 1011,8 hPa 0,0 l/m 0 min 0 min 0 W/m 12,9 km/h (3 Bft) 100,00 %
12.01.2019 19:24 6,4 C 5,6 C 5,0 C 98 % 1011,9 hPa 0,0 l/m 0 min 0 min 0 W/m 19,3 km/h (3 Bft) 100,00 %
12.01.2019 19:26 6,4 C 5,6 C 5,0 C 98 % 1011,9 hPa 0,0 l/m 0 min 2 min 0 W/m 16,1 km/h (3 Bft) 100,00 %
12.01.2019 19:28 6,4 C 5,6 C 5,0 C 98 % 1011,8 hPa 0,0 l/m 0 min 2 min 0 W/m 12,9 km/h (3 Bft) 100,00 %
12.01.2019 19:30 6,4 C 5,6 C 5,0 C 98 % 1011,8 hPa 0,0 l/m 0 min 2 min 0 W/m 9,7 km/h (2 Bft) 100,00 %
12.01.2019 19:32 6,4 C 5,6 C 5,0 C 98 % 1011,8 hPa 0,0 l/m 0 min 2 min 0 W/m 16,1 km/h (3 Bft) 100,00 %
12.01.2019 19:34 6,4 C 5,6 C 5,0 C 98 % 1011,8 hPa 0,0 l/m 0 min 2 min 0 W/m 12,9 km/h (3 Bft) 97,87 %
12.01.2019 19:36 6,4 C 5,6 C 5,0 C 98 % 1011,8 hPa 0,0 l/m 0 min 0 min 0 W/m 25,7 km/h (4 Bft) 100,00 %
12.01.2019 19:38 6,4 C 5,6 C 5,0 C 98 % 1011,9 hPa 0,0 l/m 0 min 0 min 0 W/m 6,4 km/h (2 Bft) 100,00 %
12.01.2019 19:40 6,4 C 5,6 C 5,0 C 98 % 1011,8 hPa 0,0 l/m 0 min 0 min 0 W/m 19,3 km/h (3 Bft) 100,00 %
12.01.2019 19:42 6,4 C 5,6 C 5,0 C 98 % 1011,7 hPa 0,0 l/m 0 min 0 min 0 W/m 16,1 km/h (3 Bft) 100,00 %
12.01.2019 19:44 6,4 C 5,6 C 5,0 C 98 % 1011,7 hPa 0,0 l/m 0 min 0 min 0 W/m 16,1 km/h (3 Bft) 100,00 %
12.01.2019 19:46 6,3 C 5,6 C 5,0 C 98 % 1011,7 hPa 0,0 l/m 0 min 0 min 0 W/m 16,1 km/h (3 Bft) 100,00 %
12.01.2019 19:48 6,3 C 5,6 C 5,0 C 98 % 1011,7 hPa 0,0 l/m 0 min 0 min 0 W/m 9,7 km/h (2 Bft) 100,00 %
12.01.2019 19:50 6,3 C 5,6 C 5,0 C 98 % 1011,7 hPa 0,0 l/m 0 min 0 min 0 W/m 12,9 km/h (3 Bft) 100,00 %
12.01.2019 19:52 6,3 C 5,6 C 5,0 C 98 % 1011,6 hPa 0,0 l/m 0 min 2 min 0 W/m 6,4 km/h (2 Bft) 100,00 %
12.01.2019 19:54 6,3 C 5,6 C 5,0 C 98 % 1011,8 hPa 0,0 l/m 0 min 2 min 0 W/m 19,3 km/h (3 Bft) 100,00 %
12.01.2019 19:56 6,3 C 5,6 C 5,0 C 98 % 1011,7 hPa 0,0 l/m 0 min 2 min 0 W/m 16,1 km/h (3 Bft) 100,00 %
12.01.2019 19:58 6,3 C 5,6 C 5,0 C 98 % 1011,6 hPa 0,0 l/m 0 min 0 min 0 W/m 12,9 km/h (3 Bft) 97,87 %
12.01.2019 20:00 6,3 C 5,6 C 5,0 C 98 % 1011,6 hPa 0,0 l/m 0 min 0 min 0 W/m 12,9 km/h (3 Bft) 97,87 %
12.01.2019 20:02 6,2 C 5,0 C 5,0 C 98 % 1011,6 hPa 0,0 l/m 0 min 0 min 0 W/m 19,3 km/h (3 Bft) 95,74 %
12.01.2019 20:04 6,2 C 5,0 C 4,4 C 98 % 1011,7 hPa 0,0 l/m 0 min 0 min 0 W/m 12,9 km/h (3 Bft) 97,83 %
12.01.2019 20:06 6,2 C 5,0 C 5,0 C 98 % 1011,6 hPa 0,0 l/m 0 min 0 min 0 W/m 9,7 km/h (2 Bft) 97,87 %
12.01.2019 20:08 6,2 C 5,6 C 5,0 C 98 % 1011,6 hPa 0,0 l/m 0 min 0 min 0 W/m 12,9 km/h (3 Bft) 97,92 %
12.01.2019 20:10 6,2 C 5,6 C 5,0 C 98 % 1011,7 hPa 0,0 l/m 0 min 0 min 0 W/m 19,3 km/h (3 Bft) 97,87 %
12.01.2019 20:12 6,2 C 5,6 C 5,0 C 98 % 1011,8 hPa 0,0 l/m 0 min 2 min 0 W/m 16,1 km/h (3 Bft) 95,74 %
12.01.2019 20:14 6,2 C 5,6 C 5,0 C 98 % 1011,7 hPa 0,0 l/m 0 min 2 min 0 W/m 9,7 km/h (2 Bft) 97,83 %
12.01.2019 20:16 6,2 C 5,6 C 5,0 C 98 % 1011,6 hPa 0,0 l/m 0 min 0 min 0 W/m 12,9 km/h (3 Bft) 97,87 %
12.01.2019 20:18 6,2 C 5,6 C 5,0 C 98 % 1011,7 hPa 0,0 l/m 0 min 0 min 0 W/m 9,7 km/h (2 Bft) 97,87 %
12.01.2019 20:20 6,2 C 5,6 C 5,0 C 98 % 1011,7 hPa 0,0 l/m 0 min 0 min 0 W/m 12,9 km/h (3 Bft) 95,74 %
12.01.2019 20:22 6,2 C 5,6 C 5,0 C 98 % 1011,6 hPa 0,0 l/m 0 min 0 min 0 W/m 9,7 km/h (2 Bft) 97,87 %
12.01.2019 20:24 6,3 C 5,6 C 5,0 C 98 % 1011,6 hPa 0,0 l/m 0 min 0 min 0 W/m 16,1 km/h (3 Bft) 95,74 %
12.01.2019 20:26 6,3 C 5,6 C 5,0 C 98 % 1011,5 hPa 0,0 l/m 0 min 0 min 0 W/m 9,7 km/h (2 Bft) 97,83 %
12.01.2019 20:28 6,3 C 5,6 C 5,0 C 98 % 1011,6 hPa 0,0 l/m 0 min 0 min 0 W/m 12,9 km/h (3 Bft) 97,87 %
12.01.2019 20:30 6,3 C 5,6 C 5,0 C 98 % 1011,6 hPa 0,0 l/m 0 min 0 min 0 W/m 19,3 km/h (3 Bft) 95,74 %
12.01.2019 20:32 6,3 C 5,6 C 5,0 C 98 % 1011,5 hPa 0,0 l/m 0 min 0 min 0 W/m 12,9 km/h (3 Bft) 95,74 %
12.01.2019 20:34 6,3 C 5,6 C 5,0 C 98 % 1011,6 hPa 0,0 l/m 0 min 2 min 0 W/m 16,1 km/h (3 Bft) 97,87 %
12.01.2019 20:36 6,2 C 5,6 C 5,0 C 98 % 1011,6 hPa 0,0 l/m 0 min 0 min 0 W/m 12,9 km/h (3 Bft) 97,87 %
12.01.2019 20:38 6,3 C 5,6 C 5,0 C 98 % 1011,6 hPa 0,0 l/m 0 min 2 min 0 W/m 9,7 km/h (2 Bft) 97,87 %
12.01.2019 20:40 6,3 C 5,6 C 5,0 C 98 % 1011,6 hPa 0,0 l/m 0 min 0 min 0 W/m 12,9 km/h (3 Bft) 97,87 %
12.01.2019 20:42 6,3 C 5,6 C 5,0 C 98 % 1011,5 hPa 0,0 l/m 0 min 0 min 0 W/m 12,9 km/h (3 Bft) 95,74 %
12.01.2019 20:44 6,3 C 5,6 C 5,0 C 98 % 1011,5 hPa 0,0 l/m 0 min 2 min 0 W/m 19,3 km/h (3 Bft) 97,87 %
12.01.2019 20:46 6,3 C 5,6 C 5,0 C 98 % 1011,5 hPa 0,0 l/m 0 min 0 min 0 W/m 16,1 km/h (3 Bft) 97,87 %
12.01.2019 20:48 6,3 C 5,6 C 5,0 C 98 % 1011,5 hPa 0,0 l/m 0 min 0 min 0 W/m 22,5 km/h (4 Bft) 95,74 %
12.01.2019 20:50 6,3 C 5,6 C 5,0 C 98 % 1011,5 hPa 0,0 l/m 0 min 0 min 0 W/m 16,1 km/h (3 Bft) 95,65 %
12.01.2019 20:52 6,3 C 5,6 C 5,0 C 98 % 1011,5 hPa 0,0 l/m 0 min 0 min 0 W/m 16,1 km/h (3 Bft) 95,74 %
12.01.2019 20:54 6,3 C 5,6 C 5,0 C 98 % 1011,5 hPa 0,0 l/m 0 min 0 min 0 W/m 12,9 km/h (3 Bft) 95,74 %
12.01.2019 20:56 6,3 C 5,6 C 5,0 C 98 % 1011,4 hPa 0,0 l/m 0 min 0 min 0 W/m 9,7 km/h (2 Bft) 97,87 %
12.01.2019 20:58 6,3 C 5,6 C 5,0 C 98 % 1011,4 hPa 0,0 l/m 0 min 0 min 0 W/m 9,7 km/h (2 Bft) 95,74 %
12.01.2019 21:00 6,3 C 5,6 C 5,0 C 98 % 1011,4 hPa 0,0 l/m 0 min 0 min 0 W/m 19,3 km/h (3 Bft) 93,62 %
12.01.2019 21:02 6,3 C 5,6 C 5,0 C 98 % 1011,5 hPa 0,0 l/m 0 min 0 min 0 W/m 19,3 km/h (3 Bft) 91,30 %
12.01.2019 21:04 6,3 C 5,6 C 5,0 C 98 % 1011,5 hPa 0,0 l/m 0 min 0 min 0 W/m 9,7 km/h (2 Bft) 97,87 %
12.01.2019 21:06 6,3 C 5,6 C 5,0 C 98 % 1011,5 hPa 0,0 l/m 0 min 0 min 0 W/m 19,3 km/h (3 Bft) 97,87 %
12.01.2019 21:08 6,3 C 5,6 C 5,0 C 98 % 1011,4 hPa 0,0 l/m 0 min 0 min 0 W/m 12,9 km/h (3 Bft) 93,62 %
12.01.2019 21:10 6,4 C 5,6 C 5,0 C 98 % 1011,4 hPa 0,0 l/m 0 min 0 min 0 W/m 12,9 km/h (3 Bft) 95,74 %
12.01.2019 21:12 6,4 C 5,6 C 5,0 C 98 % 1011,4 hPa 0,0 l/m 0 min 0 min 0 W/m 16,1 km/h (3 Bft) 95,74 %
12.01.2019 21:14 6,4 C 5,6 C 5,0 C 98 % 1011,3 hPa 0,0 l/m 0 min 2 min 0 W/m 12,9 km/h (3 Bft) 95,65 %
12.01.2019 21:16 6,4 C 5,6 C 5,0 C 98 % 1011,4 hPa 0,0 l/m 0 min 0 min 0 W/m 19,3 km/h (3 Bft) 93,62 %
12.01.2019 21:18 6,4 C 5,6 C 5,0 C 98 % 1011,4 hPa 0,0 l/m 0 min 0 min 0 W/m 19,3 km/h (3 Bft) 95,74 %
12.01.2019 21:20 6,4 C 5,6 C 5,0 C 98 % 1011,4 hPa 0,0 l/m 0 min 0 min 0 W/m 16,1 km/h (3 Bft) 93,62 %
12.01.2019 21:22 6,4 C 5,6 C 5,0 C 98 % 1011,3 hPa 0,0 l/m 0 min 0 min 0 W/m 16,1 km/h (3 Bft) 95,74 %
12.01.2019 21:24 6,4 C 5,6 C 5,0 C 98 % 1011,3 hPa 0,0 l/m 0 min 0 min 0 W/m 19,3 km/h (3 Bft) 93,62 %
12.01.2019 21:26 6,4 C 5,6 C 5,0 C 98 % 1011,4 hPa 0,0 l/m 0 min 0 min 0 W/m 22,5 km/h (4 Bft) 95,65 %
12.01.2019 21:28 6,4 C 5,6 C 5,0 C 98 % 1011,4 hPa 0,0 l/m 0 min 0 min 0 W/m 19,3 km/h (3 Bft) 95,74 %
12.01.2019 21:30 6,4 C 5,6 C 5,0 C 98 % 1011,3 hPa 0,0 l/m 0 min 0 min 0 W/m 19,3 km/h (3 Bft) 93,62 %
12.01.2019 21:32 6,4 C 5,6 C 5,0 C 98 % 1011,3 hPa 0,0 l/m 0 min 0 min 0 W/m 16,1 km/h (3 Bft) 95,74 %
12.01.2019 21:34 6,4 C 5,6 C 5,0 C 98 % 1011,3 hPa 0,0 l/m 0 min 0 min 0 W/m 22,5 km/h (4 Bft) 97,87 %
12.01.2019 21:36 6,4 C 5,6 C 5,0 C 98 % 1011,4 hPa 0,0 l/m 0 min 0 min 0 W/m 12,9 km/h (3 Bft) 97,83 %
12.01.2019 21:38 6,4 C 5,6 C 5,0 C 98 % 1011,3 hPa 0,0 l/m 0 min 0 min 0 W/m 12,9 km/h (3 Bft) 97,87 %
12.01.2019 21:40 6,4 C 5,6 C 5,0 C 98 % 1011,3 hPa 0,0 l/m 0 min 0 min 0 W/m 16,1 km/h (3 Bft) 97,87 %
12.01.2019 21:42 6,4 C 5,6 C 5,0 C 98 % 1011,3 hPa 0,0 l/m 0 min 0 min 0 W/m 12,9 km/h (3 Bft) 95,74 %
12.01.2019 21:44 6,4 C 5,6 C 5,0 C 98 % 1011,3 hPa 0,0 l/m 0 min 0 min 0 W/m 12,9 km/h (3 Bft) 97,87 %
12.01.2019 21:46 6,4 C 5,6 C 5,0 C 98 % 1011,3 hPa 0,0 l/m 0 min 0 min 0 W/m 16,1 km/h (3 Bft) 97,87 %
12.01.2019 21:48 6,4 C 5,6 C 5,0 C 98 % 1011,3 hPa 0,0 l/m 0 min 0 min 0 W/m 16,1 km/h (3 Bft) 97,83 %
12.01.2019 21:50 6,4 C 5,6 C 5,0 C 98 % 1011,3 hPa 0,0 l/m 0 min 0 min 0 W/m 12,9 km/h (3 Bft) 97,87 %
12.01.2019 21:52 6,4 C 5,6 C 5,0 C 98 % 1011,3 hPa 0,0 l/m 0 min 0 min 0 W/m 12,9 km/h (3 Bft) 97,87 %
12.01.2019 21:54 6,4 C 5,6 C 5,0 C 98 % 1011,3 hPa 0,0 l/m 0 min 0 min 0 W/m 16,1 km/h (3 Bft) 97,87 %
12.01.2019 21:56 6,4 C 5,6 C 5,0 C 98 % 1011,4 hPa 0,0 l/m 0 min 0 min 0 W/m 12,9 km/h (3 Bft) 97,87 %
12.01.2019 21:58 6,4 C 5,6 C 5,0 C 98 % 1011,3 hPa 0,0 l/m 0 min 0 min 0 W/m 12,9 km/h (3 Bft) 97,87 %
12.01.2019 22:00 6,4 C 5,6 C 5,0 C 98 % 1011,3 hPa 0,0 l/m 0 min 0 min 0 W/m 19,3 km/h (3 Bft) 97,83 %
12.01.2019 22:02 6,4 C 5,6 C 5,0 C 98 % 1011,3 hPa 0,0 l/m 0 min 0 min 0 W/m 16,1 km/h (3 Bft) 97,87 %
12.01.2019 22:04 6,4 C 5,6 C 5,0 C 98 % 1011,3 hPa 0,0 l/m 0 min 0 min 0 W/m 16,1 km/h (3 Bft) 97,87 %
12.01.2019 22:06 6,3 C 5,6 C 5,0 C 98 % 1011,2 hPa 0,0 l/m 0 min 0 min 0 W/m 19,3 km/h (3 Bft) 100,00 %
12.01.2019 22:08 6,3 C 5,6 C 4,4 C 98 % 1011,2 hPa 0,0 l/m 0 min 0 min 0 W/m 19,3 km/h (3 Bft) 100,00 %
12.01.2019 22:10 6,3 C 5,0 C 4,4 C 98 % 1011,1 hPa 0,0 l/m 0 min 0 min 0 W/m 16,1 km/h (3 Bft) 100,00 %
12.01.2019 22:12 6,2 C 5,0 C 4,4 C 98 % 1011,2 hPa 0,0 l/m 0 min 0 min 0 W/m 16,1 km/h (3 Bft) 100,00 %
12.01.2019 22:14 6,2 C 5,0 C 4,4 C 98 % 1011,3 hPa 0,0 l/m 0 min 0 min 0 W/m 19,3 km/h (3 Bft) 100,00 %
12.01.2019 22:16 6,2 C 5,6 C 4,4 C 98 % 1011,2 hPa 0,0 l/m 0 min 0 min 0 W/m 16,1 km/h (3 Bft) 100,00 %
12.01.2019 22:18 6,2 C 5,6 C 4,4 C 98 % 1011,2 hPa 0,0 l/m 0 min 0 min 0 W/m 9,7 km/h (2 Bft) 97,87 %
12.01.2019 22:20 6,2 C 5,0 C 4,4 C 98 % 1011,1 hPa 0,0 l/m 0 min 0 min 0 W/m 9,7 km/h (2 Bft) 100,00 %
12.01.2019 22:22 6,2 C 5,6 C 4,4 C 98 % 1011,2 hPa 0,0 l/m 0 min 0 min 0 W/m 9,7 km/h (2 Bft) 97,87 %
12.01.2019 22:24 6,2 C 5,6 C 5,0 C 98 % 1011,1 hPa 0,0 l/m 0 min 0 min 0 W/m 9,7 km/h (2 Bft) 100,00 %
12.01.2019 22:26 6,2 C 5,6 C 5,0 C 98 % 1011,2 hPa 0,0 l/m 0 min 0 min 0 W/m 12,9 km/h (3 Bft) 100,00 %
12.01.2019 22:28 6,2 C 5,6 C 5,0 C 98 % 1011,1 hPa 0,0 l/m 0 min 0 min 0 W/m 12,9 km/h (3 Bft) 100,00 %
12.01.2019 22:30 6,2 C 5,6 C 5,0 C 98 % 1011,0 hPa 0,0 l/m 0 min 0 min 0 W/m 12,9 km/h (3 Bft) 100,00 %
12.01.2019 22:32 6,2 C 5,6 C 5,0 C 98 % 1011,2 hPa 0,0 l/m 0 min 0 min 0 W/m 9,7 km/h (2 Bft) 100,00 %
12.01.2019 22:34 6,2 C 5,6 C 5,0 C 98 % 1011,1 hPa 0,0 l/m 0 min 0 min 0 W/m 12,9 km/h (3 Bft) 100,00 %
12.01.2019 22:36 6,2 C 5,6 C 5,0 C 98 % 1011,1 hPa 0,0 l/m 0 min 0 min 0 W/m 9,7 km/h (2 Bft) 100,00 %
12.01.2019 22:38 6,2 C 5,6 C 5,0 C 98 % 1011,2 hPa 0,0 l/m 0 min 2 min 0 W/m 12,9 km/h (3 Bft) 100,00 %
12.01.2019 22:40 6,2 C 5,6 C 5,0 C 98 % 1011,1 hPa 0,0 l/m 0 min 2 min 0 W/m 6,4 km/h (2 Bft) 100,00 %
12.01.2019 22:42 6,2 C 5,6 C 5,0 C 98 % 1011,1 hPa 0,0 l/m 0 min 0 min 0 W/m 9,7 km/h (2 Bft) 100,00 %
12.01.2019 22:44 6,2 C 5,6 C 5,0 C 98 % 1011,1 hPa 0,0 l/m 0 min 0 min 0 W/m 6,4 km/h (2 Bft) 100,00 %
12.01.2019 22:46 6,3 C 5,6 C 5,0 C 98 % 1011,0 hPa 0,0 l/m 0 min 0 min 0 W/m 9,7 km/h (2 Bft) 100,00 %
12.01.2019 22:48 6,3 C 5,6 C 5,0 C 98 % 1011,0 hPa 0,0 l/m 0 min 0 min 0 W/m 19,3 km/h (3 Bft) 100,00 %
12.01.2019 22:50 6,3 C 5,6 C 5,0 C 98 % 1011,1 hPa 0,0 l/m 0 min 0 min 0 W/m 12,9 km/h (3 Bft) 100,00 %
12.01.2019 22:52 6,3 C 5,6 C 5,0 C 98 % 1011,1 hPa 0,0 l/m 0 min 0 min 0 W/m 12,9 km/h (3 Bft) 100,00 %
12.01.2019 22:54 6,3 C 5,6 C 5,0 C 98 % 1011,0 hPa 0,0 l/m 0 min 0 min 0 W/m 16,1 km/h (3 Bft) 100,00 %
12.01.2019 22:56 6,4 C 5,6 C 5,0 C 98 % 1011,1 hPa 0,0 l/m 0 min 0 min 0 W/m 16,1 km/h (3 Bft) 100,00 %
12.01.2019 22:58 6,4 C 5,6 C 5,0 C 98 % 1011,0 hPa 0,0 l/m 0 min 0 min 0 W/m 16,1 km/h (3 Bft) 100,00 %
12.01.2019 23:00 6,4 C 5,6 C 5,0 C 98 % 1010,9 hPa 0,0 l/m 0 min 0 min 0 W/m 16,1 km/h (3 Bft) 100,00 %
12.01.2019 23:02 6,4 C 5,6 C 5,0 C 98 % 1010,9 hPa 0,0 l/m 0 min 0 min 0 W/m 12,9 km/h (3 Bft) 100,00 %
12.01.2019 23:04 6,4 C 5,6 C 5,0 C 98 % 1011,0 hPa 0,0 l/m 0 min 0 min 0 W/m 9,7 km/h (2 Bft) 100,00 %
12.01.2019 23:06 6,4 C 5,6 C 5,0 C 98 % 1011,0 hPa 0,0 l/m 0 min 0 min 0 W/m 9,7 km/h (2 Bft) 97,87 %
12.01.2019 23:08 6,5 C 5,6 C 5,0 C 98 % 1011,1 hPa 0,0 l/m 0 min 0 min 0 W/m 9,7 km/h (2 Bft) 100,00 %
12.01.2019 23:10 6,4 C 5,6 C 5,0 C 98 % 1011,1 hPa 0,0 l/m 0 min 0 min 0 W/m 16,1 km/h (3 Bft) 97,83 %
12.01.2019 23:12 6,5 C 5,6 C 5,0 C 98 % 1011,0 hPa 0,0 l/m 0 min 0 min 0 W/m 12,9 km/h (3 Bft) 97,87 %
12.01.2019 23:14 6,5 C 5,6 C 5,0 C 98 % 1011,0 hPa 0,0 l/m 0 min 0 min 0 W/m 9,7 km/h (2 Bft) 97,87 %
12.01.2019 23:16 6,5 C 5,6 C 5,0 C 98 % 1011,0 hPa 0,0 l/m 0 min 0 min 0 W/m 16,1 km/h (3 Bft) 97,87 %
12.01.2019 23:18 6,5 C 5,6 C 5,0 C 98 % 1011,0 hPa 0,0 l/m 0 min 0 min 0 W/m 12,9 km/h (3 Bft) 97,87 %
12.01.2019 23:20 6,5 C 5,6 C 5,0 C 98 % 1011,0 hPa 0,0 l/m 0 min 0 min 0 W/m 12,9 km/h (3 Bft) 95,74 %
12.01.2019 23:22 6,5 C 5,6 C 5,0 C 98 % 1011,0 hPa 0,0 l/m 0 min 0 min 0 W/m 12,9 km/h (3 Bft) 95,65 %
12.01.2019 23:24 6,5 C 5,6 C 5,0 C 98 % 1011,0 hPa 0,0 l/m 0 min 0 min 0 W/m 16,1 km/h (3 Bft) 95,74 %
12.01.2019 23:26 6,5 C 5,6 C 5,0 C 98 % 1011,0 hPa 0,0 l/m 0 min 0 min 0 W/m 12,9 km/h (3 Bft) 95,74 %
12.01.2019 23:28 6,5 C 5,6 C 5,0 C 98 % 1011,0 hPa 0,0 l/m 0 min 0 min 0 W/m 9,7 km/h (2 Bft) 95,74 %
12.01.2019 23:30 6,5 C 6,1 C 5,0 C 98 % 1011,0 hPa 0,0 l/m 0 min 0 min 0 W/m 16,1 km/h (3 Bft) 95,74 %
12.01.2019 23:32 6,6 C 5,6 C 5,0 C 98 % 1011,0 hPa 0,0 l/m 0 min 0 min 0 W/m 16,1 km/h (3 Bft) 95,74 %
12.01.2019 23:34 6,6 C 6,1 C 5,0 C 98 % 1011,1 hPa 0,0 l/m 0 min 0 min 0 W/m 9,7 km/h (2 Bft) 95,65 %
12.01.2019 23:36 6,6 C 6,1 C 5,0 C 98 % 1011,1 hPa 0,0 l/m 0 min 0 min 0 W/m 9,7 km/h (2 Bft) 95,74 %
12.01.2019 23:38 6,6 C 6,1 C 5,0 C 98 % 1011,0 hPa 0,0 l/m 0 min 0 min 0 W/m 9,7 km/h (2 Bft) 93,75 %
12.01.2019 23:40 6,6 C 6,1 C 5,6 C 98 % 1011,0 hPa 0,0 l/m 0 min 0 min 0 W/m 9,7 km/h (2 Bft) 95,74 %
12.01.2019 23:42 6,6 C 6,1 C 5,6 C 98 % 1011,0 hPa 0,0 l/m 0 min 0 min 0 W/m 12,9 km/h (3 Bft) 93,62 %
12.01.2019 23:44 6,6 C 6,1 C 5,0 C 98 % 1010,9 hPa 0,0 l/m 0 min 0 min 0 W/m 9,7 km/h (2 Bft) 95,65 %
12.01.2019 23:46 6,6 C 6,1 C 5,6 C 98 % 1010,9 hPa 0,0 l/m 0 min 0 min 0 W/m 12,9 km/h (3 Bft) 93,62 %
12.01.2019 23:48 6,6 C 6,1 C 5,6 C 98 % 1010,9 hPa 0,0 l/m 0 min 0 min 0 W/m 12,9 km/h (3 Bft) 93,62 %
12.01.2019 23:50 6,6 C 6,1 C 5,6 C 98 % 1010,9 hPa 0,0 l/m 0 min 0 min 0 W/m 16,1 km/h (3 Bft) 93,62 %
12.01.2019 23:52 6,6 C 6,1 C 5,6 C 98 % 1010,9 hPa 0,0 l/m 0 min 0 min 0 W/m 16,1 km/h (3 Bft) 95,74 %
12.01.2019 23:54 6,7 C 6,1 C 5,6 C 98 % 1011,0 hPa 0,0 l/m 0 min 0 min 0 W/m 9,7 km/h (2 Bft) 93,62 %
12.01.2019 23:56 6,7 C 6,1 C 5,6 C 98 % 1010,9 hPa 0,0 l/m 0 min 0 min 0 W/m 9,7 km/h (2 Bft) 93,48 %
12.01.2019 23:58 6,7 C 6,1 C 5,6 C 98 % 1010,9 hPa 0,0 l/m 0 min 0 min 0 W/m 16,1 km/h (3 Bft) 93,62 %
_ Min-Zeit 07:22 04:48 04:54 11:08 23:00 - - - - 06:52 05:12
Minimum _ 4,9 C 4,4 C 3,9 C 92 % 1010,9 hPa - - - - 0,0 km/h (0 Bft) 83,33 %
_ Max-Zeit 17:10 16:26 16:20 00:00 00:44 02:48 00:00 01:38 12:30 14:12 00:00
Maximum _ 6,8 C 6,1 C 5,6 C 99 % 1022,1 hPa 0,2 l/m 0 min 2 min 55 W/m 35,4 km/h
S-SO (5 Bft)
100,00 %
Durchschnitt _ 5,9 C 5,2 C 4,6 C 98 % 1016,3 hPa #3,4 l/m #0 min. #6:24 h 27 W/m 13,6 km/h (3 Bft) 97,33 %
© 2019 W. Hausmann